Time,TemperatureF,DewpointF,PressureIn,WindDirection,WindDirectionDegrees,WindSpeedMPH,WindSpeedGustMPH,Humidity,HourlyPrecipIn,Conditions,Clouds,dailyrainin,SoftwareType,DateUTC
2013-01-10 00:00:00,43.5,27.9,29.94,North,355,10.0,10.0,54,0.00,,,0.00,Wunderground v.1.15,2013-01-10 05:00:00,
2013-01-10 00:03:00,43.5,27.9,29.94,NNW,331,10.0,19.0,54,0.00,,,0.00,Wunderground v.1.15,2013-01-10 05:03:00,
2013-01-10 00:04:00,43.4,27.8,29.95,WNW,294,10.0,19.0,54,0.00,,,0.00,Wunderground v.1.15,2013-01-10 05:04:00,
2013-01-10 00:06:00,43.4,27.8,29.95,NW,322,9.0,19.0,54,0.00,,,0.00,Wunderground v.1.15,2013-01-10 05:06:00,
2013-01-10 00:07:00,43.4,27.8,29.95,WSW,242,9.0,19.0,54,0.00,,,0.00,Wunderground v.1.15,2013-01-10 05:07:00,
2013-01-10 00:09:00,43.4,28.3,29.95,NW,323,10.0,19.0,55,0.00,,,0.00,Wunderground v.1.15,2013-01-10 05:09:00,
2013-01-10 00:12:00,43.4,27.8,29.95,NNW,334,10.0,19.0,54,0.00,,,0.00,Wunderground v.1.15,2013-01-10 05:12:00,
2013-01-10 00:14:00,43.5,27.9,29.95,West,276,11.0,22.0,54,0.00,,,0.00,Wunderground v.1.15,2013-01-10 05:14:00,
2013-01-10 00:16:00,43.6,28.0,29.95,WNW,297,11.0,22.0,54,0.00,,,0.00,Wunderground v.1.15,2013-01-10 05:16:00,
2013-01-10 00:19:00,43.5,27.9,29.95,WNW,298,9.0,22.0,54,0.00,,,0.00,Wunderground v.1.15,2013-01-10 05:19:00,
2013-01-10 00:20:00,43.5,28.4,29.95,NNW,340,8.0,8.0,55,0.00,,,0.00,Wunderground v.1.15,2013-01-10 05:20:00,
2013-01-10 00:23:00,43.4,28.3,29.95,NW,325,7.0,19.0,55,0.00,,,0.00,Wunderground v.1.15,2013-01-10 05:23:00,
2013-01-10 00:27:00,43.4,28.3,29.96,WNW,300,6.0,19.0,55,0.00,,,0.00,Wunderground v.1.15,2013-01-10 05:27:00,
2013-01-10 00:29:00,43.3,28.2,29.96,WNW,298,6.0,19.0,55,0.00,,,0.00,Wunderground v.1.15,2013-01-10 05:29:00,
2013-01-10 00:31:00,43.4,28.3,29.96,West,259,7.0,19.0,55,0.00,,,0.00,Wunderground v.1.15,2013-01-10 05:31:00,
2013-01-10 00:34:00,43.4,28.3,29.95,WNW,288,8.0,19.0,55,0.00,,,0.00,Wunderground v.1.15,2013-01-10 05:34:00,
2013-01-10 00:36:00,43.5,28.4,29.95,WNW,288,9.0,19.0,55,0.00,,,0.00,Wunderground v.1.15,2013-01-10 05:36:00,
2013-01-10 00:37:00,43.6,28.5,29.95,WSW,252,9.0,19.0,55,0.00,,,0.00,Wunderground v.1.15,2013-01-10 05:37:00,
2013-01-10 00:38:00,43.6,28.5,29.95,WSW,251,10.0,19.0,55,0.00,,,0.00,Wunderground v.1.15,2013-01-10 05:38:00,
2013-01-10 00:42:00,43.5,28.4,29.96,WNW,298,11.0,19.0,55,0.00,,,0.00,Wunderground v.1.15,2013-01-10 05:42:00,
2013-01-10 00:44:00,43.5,28.8,29.97,NW,316,11.0,19.0,56,0.00,,,0.00,Wunderground v.1.15,2013-01-10 05:44:00,
2013-01-10 00:46:00,43.5,28.8,29.97,WNW,294,10.0,19.0,56,0.00,,,0.00,Wunderground v.1.15,2013-01-10 05:46:00,
2013-01-10 00:47:00,43.4,28.7,29.97,NW,326,10.0,19.0,56,0.00,,,0.00,Wunderground v.1.15,2013-01-10 05:47:00,
2013-01-10 00:49:00,43.4,28.7,29.99,NW,325,9.0,19.0,56,0.00,,,0.00,Wunderground v.1.15,2013-01-10 05:49:00,
2013-01-10 00:51:00,43.3,29.1,29.99,WNW,288,9.0,19.0,57,0.00,,,0.00,Wunderground v.1.15,2013-01-10 05:51:00,
2013-01-10 00:52:00,43.1,29.7,30.00,WNW,288,9.0,25.0,59,0.00,,,0.00,Wunderground v.1.15,2013-01-10 05:52:00,
2013-01-10 00:53:00,42.9,30.4,30.00,West,271,11.0,25.0,61,0.00,,,0.00,Wunderground v.1.15,2013-01-10 05:53:00,
2013-01-10 00:56:00,42.2,31.3,29.99,NW,306,10.0,25.0,65,0.00,,,0.00,Wunderground v.1.15,2013-01-10 05:56:00,
2013-01-10 00:57:00,41.9,31.4,29.99,West,268,10.0,25.0,66,0.00,,,0.00,Wunderground v.1.15,2013-01-10 05:57:00,
2013-01-10 01:01:00,41.1,31.3,29.99,NNW,333,10.0,14.0,68,0.00,,,0.00,Wunderground v.1.15,2013-01-10 06:01:00,
2013-01-10 01:02:00,40.9,31.1,29.99,WNW,301,10.0,19.0,68,0.00,,,0.00,Wunderground v.1.15,2013-01-10 06:02:00,
2013-01-10 01:03:00,40.9,31.1,29.99,WNW,296,9.0,24.0,68,0.00,,,0.00,Wunderground v.1.15,2013-01-10 06:03:00,
2013-01-10 01:07:00,40.5,30.8,30.00,WNW,294,9.0,24.0,68,0.00,,,0.00,Wunderground v.1.15,2013-01-10 06:07:00,
2013-01-10 01:08:00,40.4,30.7,30.00,NW,313,9.0,24.0,68,0.00,,,0.00,Wunderground v.1.15,2013-01-10 06:08:00,
2013-01-10 01:09:00,40.4,31.0,30.00,NW,310,9.0,24.0,69,0.00,,,0.00,Wunderground v.1.15,2013-01-10 06:09:00,
2013-01-10 01:10:00,40.3,30.6,30.01,WNW,290,9.0,24.0,68,0.00,,,0.00,Wunderground v.1.15,2013-01-10 06:10:00,
2013-01-10 01:14:00,40.3,30.6,30.01,West,273,10.0,24.0,68,0.00,,,0.00,Wunderground v.1.15,2013-01-10 06:14:00,
2013-01-10 01:15:00,40.3,30.6,30.01,NW,326,10.0,24.0,68,0.00,,,0.00,Wunderground v.1.15,2013-01-10 06:15:00,
2013-01-10 01:16:00,40.3,30.6,30.01,NNW,337,10.0,24.0,68,0.00,,,0.00,Wunderground v.1.15,2013-01-10 06:16:00,
2013-01-10 01:17:00,40.3,30.6,30.01,WNW,303,10.0,24.0,68,0.00,,,0.00,Wunderground v.1.15,2013-01-10 06:17:00,
2013-01-10 01:21:00,40.3,30.6,30.01,NW,309,10.0,16.0,68,0.00,,,0.00,Wunderground v.1.15,2013-01-10 06:21:00,
2013-01-10 01:22:00,40.2,30.1,30.01,NW,306,10.0,24.0,67,0.00,,,0.00,Wunderground v.1.15,2013-01-10 06:22:00,
2013-01-10 01:23:00,40.2,30.1,30.01,WNW,296,10.0,24.0,67,0.00,,,0.00,Wunderground v.1.15,2013-01-10 06:23:00,
2013-01-10 01:26:00,40.3,30.2,30.01,WNW,282,11.0,24.0,67,0.00,,,0.00,Wunderground v.1.15,2013-01-10 06:26:00,
2013-01-10 01:27:00,40.3,30.2,30.01,West,274,11.0,24.0,67,0.00,,,0.00,Wunderground v.1.15,2013-01-10 06:27:00,
2013-01-10 01:29:00,40.3,30.2,30.02,West,265,11.0,24.0,67,0.00,,,0.00,Wunderground v.1.15,2013-01-10 06:29:00,
2013-01-10 01:32:00,40.2,30.1,30.02,WNW,291,11.0,24.0,67,0.00,,,0.00,Wunderground v.1.15,2013-01-10 06:32:00,
2013-01-10 01:33:00,40.2,29.7,30.02,NNW,339,10.0,24.0,66,0.00,,,0.00,Wunderground v.1.15,2013-01-10 06:33:00,
2013-01-10 01:35:00,40.2,29.7,30.02,NW,322,9.0,24.0,66,0.00,,,0.00,Wunderground v.1.15,2013-01-10 06:35:00,
2013-01-10 01:37:00,40.1,30.0,30.02,WSW,254,8.0,24.0,67,0.00,,,0.00,Wunderground v.1.15,2013-01-10 06:37:00,
2013-01-10 01:40:00,40.0,29.9,30.02,NW,314,6.0,24.0,67,0.00,,,0.00,Wunderground v.1.15,2013-01-10 06:40:00,
2013-01-10 01:42:00,39.9,29.8,30.02,NNW,344,6.0,24.0,67,0.00,,,0.00,Wunderground v.1.15,2013-01-10 06:42:00,
2013-01-10 01:45:00,39.9,29.5,30.02,NW,319,7.0,24.0,66,0.00,,,0.00,Wunderground v.1.15,2013-01-10 06:45:00,
2013-01-10 01:47:00,39.9,29.8,30.03,West,259,7.0,24.0,67,0.00,,,0.00,Wunderground v.1.15,2013-01-10 06:47:00,
2013-01-10 01:49:00,39.8,29.4,30.03,NNW,344,8.0,24.0,66,0.00,,,0.00,Wunderground v.1.15,2013-01-10 06:49:00,
2013-01-10 01:52:00,39.9,29.5,30.04,WNW,292,10.0,24.0,66,0.00,,,0.00,Wunderground v.1.15,2013-01-10 06:52:00,
2013-01-10 01:54:00,40.0,29.6,30.04,North,350,10.0,24.0,66,0.00,,,0.00,Wunderground v.1.15,2013-01-10 06:54:00,
2013-01-10 01:55:00,40.0,29.6,30.03,NNW,346,10.0,24.0,66,0.00,,,0.00,Wunderground v.1.15,2013-01-10 06:55:00,
2013-01-10 01:59:00,40.1,29.3,30.04,NW,308,12.0,24.0,65,0.00,,,0.00,Wunderground v.1.15,2013-01-10 06:59:00,
2013-01-10 02:00:00,40.2,29.4,30.04,WNW,302,13.0,13.0,65,0.00,,,0.00,Wunderground v.1.15,2013-01-10 07:00:00,
2013-01-10 02:02:00,40.2,29.0,30.04,NW,317,12.0,23.0,64,0.00,,,0.00,Wunderground v.1.15,2013-01-10 07:02:00,
2013-01-10 02:05:00,40.3,29.1,30.04,NNW,338,13.0,23.0,64,0.00,,,0.00,Wunderground v.1.15,2013-01-10 07:05:00,
2013-01-10 02:07:00,40.3,29.1,30.04,West,280,13.0,23.0,64,0.00,,,0.00,Wunderground v.1.15,2013-01-10 07:07:00,
2013-01-10 02:08:00,40.3,29.1,30.03,NW,308,13.0,23.0,64,0.00,,,0.00,Wunderground v.1.15,2013-01-10 07:08:00,
2013-01-10 02:12:00,40.2,29.0,30.04,West,262,11.0,20.0,64,0.00,,,0.00,Wunderground v.1.15,2013-01-10 07:12:00,
2013-01-10 02:13:00,40.2,29.0,30.04,WSW,258,10.0,20.0,64,0.00,,,0.00,Wunderground v.1.15,2013-01-10 07:13:00,
2013-01-10 02:14:00,40.2,29.0,30.04,NNW,329,10.0,20.0,64,0.00,,,0.00,Wunderground v.1.15,2013-01-10 07:14:00,
2013-01-10 02:17:00,40.2,29.0,30.04,NNW,344,9.0,20.0,64,0.00,,,0.00,Wunderground v.1.15,2013-01-10 07:17:00,
2013-01-10 02:18:00,40.2,29.0,30.04,NW,325,8.0,20.0,64,0.00,,,0.00,Wunderground v.1.15,2013-01-10 07:18:00,
2013-01-10 02:19:00,40.2,29.0,30.05,WNW,294,8.0,20.0,64,0.00,,,0.00,Wunderground v.1.15,2013-01-10 07:19:00,
2013-01-10 02:20:00,40.2,29.0,30.05,NW,308,8.0,8.0,64,0.00,,,0.00,Wunderground v.1.15,2013-01-10 07:20:00,
2013-01-10 02:23:00,40.1,28.9,30.04,NW,311,8.0,20.0,64,0.00,,,0.00,Wunderground v.1.15,2013-01-10 07:23:00,
2013-01-10 02:24:00,40.1,28.5,30.04,WNW,286,8.0,20.0,63,0.00,,,0.00,Wunderground v.1.15,2013-01-10 07:24:00,
2013-01-10 02:25:00,40.1,28.9,30.05,NNW,346,8.0,20.0,64,0.00,,,0.00,Wunderground v.1.15,2013-01-10 07:25:00,
2013-01-10 02:30:00,40.2,28.6,30.05,NW,309,10.0,10.0,63,0.00,,,0.00,Wunderground v.1.15,2013-01-10 07:30:00,
2013-01-10 02:31:00,40.2,28.6,30.05,NNW,328,10.0,20.0,63,0.00,,,0.00,Wunderground v.1.15,2013-01-10 07:31:00,
2013-01-10 02:34:00,40.2,28.6,30.05,NW,312,11.0,20.0,63,0.00,,,0.00,Wunderground v.1.15,2013-01-10 07:34:00,
2013-01-10 02:36:00,40.1,28.5,30.05,North,360,11.0,20.0,63,0.00,,,0.00,Wunderground v.1.15,2013-01-10 07:36:00,
2013-01-10 02:37:00,40.1,28.5,30.05,WNW,301,10.0,20.0,63,0.00,,,0.00,Wunderground v.1.15,2013-01-10 07:37:00,
2013-01-10 02:39:00,40.0,28.4,30.05,NW,304,10.0,20.0,63,0.00,,,0.00,Wunderground v.1.15,2013-01-10 07:39:00,
2013-01-10 02:41:00,40.0,28.4,30.05,West,267,10.0,20.0,63,0.00,,,0.00,Wunderground v.1.15,2013-01-10 07:41:00,
2013-01-10 02:43:00,40.0,28.4,30.05,WNW,297,8.0,20.0,63,0.00,,,0.00,Wunderground v.1.15,2013-01-10 07:43:00,
2013-01-10 02:44:00,40.0,28.4,30.05,NW,308,8.0,20.0,63,0.00,,,0.00,Wunderground v.1.15,2013-01-10 07:44:00,
2013-01-10 02:46:00,40.0,28.0,30.05,NNW,329,9.0,20.0,62,0.00,,,0.00,Wunderground v.1.15,2013-01-10 07:46:00,
2013-01-10 02:48:00,40.0,28.4,30.05,WNW,299,10.0,20.0,63,0.00,,,0.00,Wunderground v.1.15,2013-01-10 07:48:00,
2013-01-10 02:49:00,40.0,28.0,30.05,NNW,333,10.0,20.0,62,0.00,,,0.00,Wunderground v.1.15,2013-01-10 07:49:00,
2013-01-10 02:51:00,40.0,28.4,30.06,NNW,336,9.0,20.0,63,0.00,,,0.00,Wunderground v.1.15,2013-01-10 07:51:00,
2013-01-10 02:52:00,40.0,28.4,30.06,WNW,302,9.0,20.0,63,0.00,,,0.00,Wunderground v.1.15,2013-01-10 07:52:00,
2013-01-10 02:54:00,40.1,28.1,30.05,NW,310,10.0,20.0,62,0.00,,,0.00,Wunderground v.1.15,2013-01-10 07:54:00,
2013-01-10 02:55:00,40.1,28.1,30.06,NNW,330,9.0,20.0,62,0.00,,,0.00,Wunderground v.1.15,2013-01-10 07:55:00,
2013-01-10 02:57:00,40.0,28.4,30.06,SW,229,9.0,20.0,63,0.00,,,0.00,Wunderground v.1.15,2013-01-10 07:57:00,
2013-01-10 02:58:00,40.0,28.4,30.05,NW,323,9.0,20.0,63,0.00,,,0.00,Wunderground v.1.15,2013-01-10 07:58:00,
2013-01-10 03:01:00,39.9,27.9,30.05,NNW,336,9.0,25.0,62,0.00,,,0.00,Wunderground v.1.15,2013-01-10 08:01:00,
2013-01-10 03:02:00,40.0,28.0,30.05,NW,323,10.0,25.0,62,0.00,,,0.00,Wunderground v.1.15,2013-01-10 08:02:00,
2013-01-10 03:03:00,40.0,28.0,30.05,NW,322,9.0,25.0,62,0.00,,,0.00,Wunderground v.1.15,2013-01-10 08:03:00,
2013-01-10 03:07:00,40.1,27.7,30.06,NW,319,9.0,25.0,61,0.00,,,0.00,Wunderground v.1.15,2013-01-10 08:07:00,
2013-01-10 03:09:00,40.1,27.7,30.06,NW,320,10.0,25.0,61,0.00,,,0.00,Wunderground v.1.15,2013-01-10 08:09:00,
2013-01-10 03:11:00,40.1,27.7,30.06,WNW,287,9.0,25.0,61,0.00,,,0.00,Wunderground v.1.15,2013-01-10 08:11:00,
2013-01-10 03:12:00,40.0,27.6,30.06,WNW,294,9.0,25.0,61,0.00,,,0.00,Wunderground v.1.15,2013-01-10 08:12:00,
2013-01-10 03:16:00,40.0,27.2,30.06,NW,323,8.0,25.0,60,0.00,,,0.00,Wunderground v.1.15,2013-01-10 08:16:00,
2013-01-10 03:18:00,40.0,27.2,30.06,NW,310,9.0,25.0,60,0.00,,,0.00,Wunderground v.1.15,2013-01-10 08:18:00,
2013-01-10 03:21:00,40.0,26.8,30.06,NW,325,9.0,25.0,59,0.00,,,0.00,Wunderground v.1.15,2013-01-10 08:21:00,
2013-01-10 03:22:00,40.0,26.8,30.07,NW,317,9.0,25.0,59,0.00,,,0.00,Wunderground v.1.15,2013-01-10 08:22:00,
2013-01-10 03:25:00,40.1,26.9,30.06,NW,313,10.0,25.0,59,0.00,,,0.00,Wunderground v.1.15,2013-01-10 08:25:00,
2013-01-10 03:27:00,40.1,26.9,30.06,WSW,239,10.0,25.0,59,0.00,,,0.00,Wunderground v.1.15,2013-01-10 08:27:00,
2013-01-10 03:28:00,40.0,26.8,30.06,NW,319,10.0,25.0,59,0.00,,,0.00,Wunderground v.1.15,2013-01-10 08:28:00,
2013-01-10 03:31:00,40.0,26.8,30.06,NNW,329,12.0,25.0,59,0.00,,,0.00,Wunderground v.1.15,2013-01-10 08:31:00,
2013-01-10 03:32:00,39.9,26.7,30.06,West,280,12.0,25.0,59,0.00,,,0.00,Wunderground v.1.15,2013-01-10 08:32:00,
2013-01-10 03:33:00,39.9,26.7,30.06,NW,306,12.0,25.0,59,0.00,,,0.00,Wunderground v.1.15,2013-01-10 08:33:00,
2013-01-10 03:34:00,40.0,26.8,30.06,WNW,299,12.0,25.0,59,0.00,,,0.00,Wunderground v.1.15,2013-01-10 08:34:00,
2013-01-10 03:38:00,39.8,27.0,30.06,NW,326,12.0,25.0,60,0.00,,,0.00,Wunderground v.1.15,2013-01-10 08:38:00,
2013-01-10 03:39:00,39.8,27.0,30.06,WNW,283,12.0,25.0,60,0.00,,,0.00,Wunderground v.1.15,2013-01-10 08:39:00,
2013-01-10 03:40:00,39.7,26.9,30.06,SW,223,11.0,11.0,60,0.00,,,0.00,Wunderground v.1.15,2013-01-10 08:40:00,
2013-01-10 03:41:00,39.7,26.9,30.06,NW,307,11.0,12.0,60,0.00,,,0.00,Wunderground v.1.15,2013-01-10 08:41:00,
2013-01-10 03:43:00,39.7,26.9,30.06,WNW,283,10.0,25.0,60,0.00,,,0.00,Wunderground v.1.15,2013-01-10 08:43:00,
2013-01-10 03:46:00,39.6,27.2,30.07,NW,315,10.0,25.0,61,0.00,,,0.00,Wunderground v.1.15,2013-01-10 08:46:00,
2013-01-10 03:48:00,39.5,27.2,30.07,WNW,298,11.0,25.0,61,0.00,,,0.00,Wunderground v.1.15,2013-01-10 08:48:00,
2013-01-10 03:49:00,39.5,27.2,30.07,NW,309,10.0,25.0,61,0.00,,,0.00,Wunderground v.1.15,2013-01-10 08:49:00,
2013-01-10 03:50:00,39.5,27.2,30.06,NW,317,10.0,10.0,61,0.00,,,0.00,Wunderground v.1.15,2013-01-10 08:50:00,
2013-01-10 03:53:00,39.3,27.0,30.06,NW,315,9.0,25.0,61,0.00,,,0.00,Wunderground v.1.15,2013-01-10 08:53:00,
2013-01-10 03:54:00,39.3,27.4,30.07,SW,235,9.0,25.0,62,0.00,,,0.00,Wunderground v.1.15,2013-01-10 08:54:00,
2013-01-10 03:55:00,39.2,27.3,30.07,NW,322,9.0,25.0,62,0.00,,,0.00,Wunderground v.1.15,2013-01-10 08:55:00,
2013-01-10 03:58:00,39.2,27.3,30.07,WNW,294,8.0,25.0,62,0.00,,,0.00,Wunderground v.1.15,2013-01-10 08:58:00,
2013-01-10 03:59:00,39.1,27.6,30.07,NNW,336,8.0,25.0,63,0.00,,,0.00,Wunderground v.1.15,2013-01-10 08:59:00,
2013-01-10 04:03:00,39.0,27.5,30.07,NW,323,7.0,23.0,63,0.00,,,0.00,Wunderground v.1.15,2013-01-10 09:03:00,
2013-01-10 04:06:00,39.0,27.5,30.07,NW,312,8.0,23.0,63,0.00,,,0.00,Wunderground v.1.15,2013-01-10 09:06:00,
2013-01-10 04:07:00,39.0,27.5,30.07,NW,321,8.0,23.0,63,0.00,,,0.00,Wunderground v.1.15,2013-01-10 09:07:00,
2013-01-10 04:08:00,39.0,27.5,30.07,NW,311,8.0,23.0,63,0.00,,,0.00,Wunderground v.1.15,2013-01-10 09:08:00,
2013-01-10 04:10:00,38.9,27.0,30.07,NW,325,8.0,8.0,62,0.00,,,0.00,Wunderground v.1.15,2013-01-10 09:10:00,
2013-01-10 04:15:00,38.9,27.4,30.07,WNW,297,7.0,23.0,63,0.00,,,0.00,Wunderground v.1.15,2013-01-10 09:15:00,
2013-01-10 04:16:00,38.8,27.3,30.07,NW,317,6.0,23.0,63,0.00,,,0.00,Wunderground v.1.15,2013-01-10 09:16:00,
2013-01-10 04:17:00,38.8,27.3,30.08,WNW,292,6.0,23.0,63,0.00,,,0.00,Wunderground v.1.15,2013-01-10 09:17:00,
2013-01-10 04:20:00,38.7,27.2,30.07,NW,316,6.0,6.0,63,0.00,,,0.00,Wunderground v.1.15,2013-01-10 09:20:00,
2013-01-10 04:21:00,38.7,27.2,30.07,NNW,331,5.0,7.0,63,0.00,,,0.00,Wunderground v.1.15,2013-01-10 09:21:00,
2013-01-10 04:22:00,38.7,27.2,30.07,NW,319,6.0,23.0,63,0.00,,,0.00,Wunderground v.1.15,2013-01-10 09:22:00,
2013-01-10 04:24:00,38.7,27.2,30.07,NW,321,6.0,23.0,63,0.00,,,0.00,Wunderground v.1.15,2013-01-10 09:24:00,
2013-01-10 04:26:00,38.6,27.1,30.07,WNW,290,6.0,23.0,63,0.00,,,0.00,Wunderground v.1.15,2013-01-10 09:26:00,
2013-01-10 04:29:00,38.6,26.7,30.07,NNW,341,6.0,23.0,62,0.00,,,0.00,Wunderground v.1.15,2013-01-10 09:29:00,
2013-01-10 04:32:00,38.6,26.7,30.08,NNW,330,6.0,23.0,62,0.00,,,0.00,Wunderground v.1.15,2013-01-10 09:32:00,
2013-01-10 04:33:00,38.7,26.8,30.08,NNW,338,6.0,23.0,62,0.00,,,0.00,Wunderground v.1.15,2013-01-10 09:33:00,
2013-01-10 04:34:00,38.6,26.7,30.08,NNW,337,6.0,23.0,62,0.00,,,0.00,Wunderground v.1.15,2013-01-10 09:34:00,
2013-01-10 04:36:00,38.5,26.6,30.08,NNW,337,5.0,23.0,62,0.00,,,0.00,Wunderground v.1.15,2013-01-10 09:36:00,
2013-01-10 04:38:00,38.3,26.4,30.08,NNW,336,4.0,23.0,62,0.00,,,0.00,Wunderground v.1.15,2013-01-10 09:38:00,
2013-01-10 04:43:00,38.1,26.2,30.08,WNW,302,1.0,23.0,62,0.00,,,0.00,Wunderground v.1.15,2013-01-10 09:43:00,
2013-01-10 04:44:00,38.1,26.2,30.09,NW,325,1.0,23.0,62,0.00,,,0.00,Wunderground v.1.15,2013-01-10 09:44:00,
2013-01-10 04:49:00,38.3,26.0,30.09,WNW,300,2.0,23.0,61,0.00,,,0.00,Wunderground v.1.15,2013-01-10 09:49:00,
2013-01-10 04:50:00,38.3,26.0,30.09,NW,323,3.0,23.0,61,0.00,,,0.00,Wunderground v.1.15,2013-01-10 09:50:00,
2013-01-10 04:51:00,38.4,25.7,30.09,NW,319,3.0,23.0,60,0.00,,,0.00,Wunderground v.1.15,2013-01-10 09:51:00,
2013-01-10 04:54:00,38.4,25.7,30.09,NNW,328,4.0,23.0,60,0.00,,,0.00,Wunderground v.1.15,2013-01-10 09:54:00,
2013-01-10 04:56:00,38.5,25.4,30.09,WNW,297,5.0,23.0,59,0.00,,,0.00,Wunderground v.1.15,2013-01-10 09:56:00,
2013-01-10 04:59:00,38.6,25.5,30.10,NW,322,6.0,23.0,59,0.00,,,0.00,Wunderground v.1.15,2013-01-10 09:59:00,
2013-01-10 05:00:00,38.6,25.5,30.10,West,259,5.0,5.0,59,0.00,,,0.00,Wunderground v.1.15,2013-01-10 10:00:00,
2013-01-10 05:03:00,38.5,25.4,30.10,West,277,5.0,7.0,59,0.00,,,0.00,Wunderground v.1.15,2013-01-10 10:03:00,
2013-01-10 05:06:00,38.5,25.4,30.10,NW,312,4.0,7.0,59,0.00,,,0.00,Wunderground v.1.15,2013-01-10 10:06:00,
2013-01-10 05:07:00,38.4,25.3,30.10,WNW,287,3.0,7.0,59,0.00,,,0.00,Wunderground v.1.15,2013-01-10 10:07:00,
2013-01-10 05:08:00,38.4,25.3,30.10,WNW,287,3.0,7.0,59,0.00,,,0.00,Wunderground v.1.15,2013-01-10 10:08:00,
2013-01-10 05:11:00,38.3,25.2,30.10,West,276,2.0,7.0,59,0.00,,,0.00,Wunderground v.1.15,2013-01-10 10:11:00,
2013-01-10 05:13:00,38.2,25.1,30.11,WNW,301,2.0,7.0,59,0.00,,,0.00,Wunderground v.1.15,2013-01-10 10:13:00,
2013-01-10 05:15:00,38.2,25.1,30.11,WSW,252,2.0,7.0,59,0.00,,,0.00,Wunderground v.1.15,2013-01-10 10:15:00,
2013-01-10 05:16:00,38.2,25.1,30.11,WSW,252,2.0,7.0,59,0.00,,,0.00,Wunderground v.1.15,2013-01-10 10:16:00,
2013-01-10 05:19:00,38.2,24.7,30.11,NW,310,2.0,7.0,58,0.00,,,0.00,Wunderground v.1.15,2013-01-10 10:19:00,
2013-01-10 05:20:00,38.3,24.8,30.11,NW,322,3.0,3.0,58,0.00,,,0.00,Wunderground v.1.15,2013-01-10 10:20:00,
2013-01-10 05:23:00,38.4,24.5,30.12,NW,304,4.0,7.0,57,0.00,,,0.00,Wunderground v.1.15,2013-01-10 10:23:00,
2013-01-10 05:24:00,38.4,24.5,30.12,North,350,4.0,7.0,57,0.00,,,0.00,Wunderground v.1.15,2013-01-10 10:24:00,
2013-01-10 05:25:00,38.4,24.5,30.12,West,281,3.0,8.0,57,0.00,,,0.00,Wunderground v.1.15,2013-01-10 10:25:00,
2013-01-10 05:26:00,38.4,24.1,30.12,NW,325,4.0,10.0,56,0.00,,,0.00,Wunderground v.1.15,2013-01-10 10:26:00,
2013-01-10 05:31:00,38.6,23.8,30.12,NNW,334,7.0,16.0,55,0.00,,,0.00,Wunderground v.1.15,2013-01-10 10:31:00,
2013-01-10 05:32:00,38.6,23.8,30.12,WNW,299,8.0,16.0,55,0.00,,,0.00,Wunderground v.1.15,2013-01-10 10:32:00,
2013-01-10 05:36:00,38.6,23.4,30.13,NNW,337,9.0,18.0,54,0.00,,,0.00,Wunderground v.1.15,2013-01-10 10:36:00,
2013-01-10 05:39:00,38.7,23.0,30.13,NW,326,10.0,18.0,53,0.00,,,0.00,Wunderground v.1.15,2013-01-10 10:39:00,
2013-01-10 05:41:00,38.7,23.0,30.13,NNW,340,10.0,23.0,53,0.00,,,0.00,Wunderground v.1.15,2013-01-10 10:41:00,
2013-01-10 05:44:00,38.8,22.7,30.13,NW,314,11.0,23.0,52,0.00,,,0.00,Wunderground v.1.15,2013-01-10 10:44:00,
2013-01-10 05:45:00,38.8,22.7,30.13,NNW,330,10.0,23.0,52,0.00,,,0.00,Wunderground v.1.15,2013-01-10 10:45:00,
2013-01-10 05:46:00,38.8,22.7,30.13,NNW,329,11.0,23.0,52,0.00,,,0.00,Wunderground v.1.15,2013-01-10 10:46:00,
2013-01-10 05:49:00,38.8,22.7,30.13,NW,326,10.0,23.0,52,0.00,,,0.00,Wunderground v.1.15,2013-01-10 10:49:00,
2013-01-10 05:51:00,38.7,22.6,30.14,North,360,10.0,10.0,52,0.00,,,0.00,Wunderground v.1.15,2013-01-10 10:51:00,
2013-01-10 05:52:00,38.7,22.6,30.14,NNW,342,9.0,10.0,52,0.00,,,0.00,Wunderground v.1.15,2013-01-10 10:52:00,
2013-01-10 05:56:00,38.4,22.7,30.14,North,5,7.0,10.0,53,0.00,,,0.00,Wunderground v.1.15,2013-01-10 10:56:00,
2013-01-10 05:59:00,38.4,22.7,30.14,North,349,7.0,10.0,53,0.00,,,0.00,Wunderground v.1.15,2013-01-10 10:59:00,
2013-01-10 06:00:00,38.3,22.6,30.14,NE,41,6.0,24.0,53,0.00,,,0.00,Wunderground v.1.15,2013-01-10 11:00:00,
2013-01-10 06:03:00,38.4,22.7,30.15,NW,325,6.0,24.0,53,0.00,,,0.00,Wunderground v.1.15,2013-01-10 11:03:00,
2013-01-10 06:06:00,38.3,22.6,30.15,NW,326,6.0,24.0,53,0.00,,,0.00,Wunderground v.1.15,2013-01-10 11:06:00,
2013-01-10 06:08:00,38.2,22.6,30.15,NW,319,5.0,24.0,53,0.00,,,0.00,Wunderground v.1.15,2013-01-10 11:08:00,
2013-01-10 06:09:00,38.2,22.6,30.15,NW,323,6.0,24.0,53,0.00,,,0.00,Wunderground v.1.15,2013-01-10 11:09:00,
2013-01-10 06:11:00,38.2,22.6,30.15,NNW,348,6.0,24.0,53,0.00,,,0.00,Wunderground v.1.15,2013-01-10 11:11:00,
2013-01-10 06:14:00,38.2,22.6,30.15,NW,323,7.0,24.0,53,0.00,,,0.00,Wunderground v.1.15,2013-01-10 11:14:00,
2013-01-10 06:15:00,38.1,22.5,30.16,West,279,7.0,24.0,53,0.00,,,0.00,Wunderground v.1.15,2013-01-10 11:15:00,
2013-01-10 06:16:00,38.1,22.5,30.16,NW,322,7.0,24.0,53,0.00,,,0.00,Wunderground v.1.15,2013-01-10 11:16:00,
2013-01-10 06:20:00,38.0,22.8,30.16,North,360,7.0,7.0,54,0.00,,,0.00,Wunderground v.1.15,2013-01-10 11:20:00,
2013-01-10 06:21:00,37.9,22.7,30.16,NNW,341,7.0,8.0,54,0.00,,,0.00,Wunderground v.1.15,2013-01-10 11:21:00,
2013-01-10 06:22:00,37.9,22.7,30.16,NNW,336,7.0,9.0,54,0.00,,,0.00,Wunderground v.1.15,2013-01-10 11:22:00,
2013-01-10 06:24:00,37.9,22.7,30.16,NW,317,6.0,24.0,54,0.00,,,0.00,Wunderground v.1.15,2013-01-10 11:24:00,
2013-01-10 06:26:00,37.8,22.6,30.16,NW,314,6.0,24.0,54,0.00,,,0.00,Wunderground v.1.15,2013-01-10 11:26:00,
2013-01-10 06:27:00,37.8,22.6,30.16,NNW,327,6.0,24.0,54,0.00,,,0.00,Wunderground v.1.15,2013-01-10 11:27:00,
2013-01-10 06:30:00,37.7,22.5,30.17,NNW,331,5.0,5.0,54,0.00,,,0.00,Wunderground v.1.15,2013-01-10 11:30:00,
2013-01-10 06:33:00,37.7,22.5,30.17,NNW,333,5.0,24.0,54,0.00,,,0.00,Wunderground v.1.15,2013-01-10 11:33:00,
2013-01-10 06:35:00,37.7,22.5,30.17,NNW,327,4.0,24.0,54,0.00,,,0.00,Wunderground v.1.15,2013-01-10 11:35:00,
2013-01-10 06:39:00,37.6,22.4,30.17,NNW,343,3.0,24.0,54,0.00,,,0.00,Wunderground v.1.15,2013-01-10 11:39:00,
2013-01-10 06:40:00,37.5,22.3,30.17,NNW,331,3.0,3.0,54,0.00,,,0.00,Wunderground v.1.15,2013-01-10 11:40:00,
2013-01-10 06:41:00,37.5,22.8,30.17,NNW,336,3.0,9.0,55,0.00,,,0.00,Wunderground v.1.15,2013-01-10 11:41:00,
2013-01-10 06:44:00,37.5,22.8,30.17,NW,324,4.0,24.0,55,0.00,,,0.00,Wunderground v.1.15,2013-01-10 11:44:00,
2013-01-10 06:45:00,37.4,22.7,30.17,NNW,336,4.0,24.0,55,0.00,,,0.00,Wunderground v.1.15,2013-01-10 11:45:00,
2013-01-10 06:49:00,37.4,22.3,30.18,NW,319,5.0,24.0,54,0.00,,,0.00,Wunderground v.1.15,2013-01-10 11:49:00,
2013-01-10 06:50:00,37.5,22.3,30.18,NW,323,6.0,6.0,54,0.00,,,0.00,Wunderground v.1.15,2013-01-10 11:50:00,
2013-01-10 06:51:00,37.4,22.7,30.18,NNW,340,6.0,9.0,55,0.00,,,0.00,Wunderground v.1.15,2013-01-10 11:51:00,
2013-01-10 06:56:00,37.3,22.6,30.18,NW,317,6.0,24.0,55,0.00,,,0.00,Wunderground v.1.15,2013-01-10 11:56:00,
2013-01-10 06:59:00,37.2,22.5,30.18,WNW,303,5.0,24.0,55,0.00,,,0.00,Wunderground v.1.15,2013-01-10 11:59:00,
2013-01-10 07:02:00,37.2,22.5,30.18,NW,315,5.0,15.0,55,0.00,,,0.00,Wunderground v.1.15,2013-01-10 12:02:00,
2013-01-10 07:05:00,37.3,22.6,30.18,WNW,297,6.0,16.0,55,0.00,,,0.00,Wunderground v.1.15,2013-01-10 12:05:00,
2013-01-10 07:09:00,37.4,22.7,30.18,NNW,328,8.0,16.0,55,0.00,,,0.00,Wunderground v.1.15,2013-01-10 12:09:00,
2013-01-10 07:11:00,37.4,24.0,30.18,NW,306,9.0,15.0,58,0.00,,,0.00,Wunderground v.1.15,2013-01-10 12:11:00,
2013-01-10 07:16:00,37.4,24.0,30.18,NW,306,9.0,15.0,58,0.00,,,0.00,Wunderground v.1.15,2013-01-10 12:16:00,
2013-01-10 07:18:00,37.4,22.7,30.18,NW,319,9.0,15.0,55,0.00,,,0.00,Wunderground v.1.15,2013-01-10 12:18:00,
2013-01-10 07:20:00,37.4,22.7,30.18,NW,307,10.0,10.0,55,0.00,,,0.00,Wunderground v.1.15,2013-01-10 12:20:00,
2013-01-10 07:25:00,37.6,22.9,30.19,NNW,344,10.0,17.0,55,0.00,,,0.00,Wunderground v.1.15,2013-01-10 12:25:00,
2013-01-10 07:27:00,37.6,22.9,30.19,NNW,329,11.0,17.0,55,0.00,,,0.00,Wunderground v.1.15,2013-01-10 12:27:00,
2013-01-10 07:30:00,37.6,22.9,30.19,NW,312,10.0,10.0,55,0.00,,,0.00,Wunderground v.1.15,2013-01-10 12:30:00,
2013-01-10 07:31:00,37.6,22.9,30.20,NNW,331,9.0,15.0,55,0.00,,,0.00,Wunderground v.1.15,2013-01-10 12:31:00,
2013-01-10 07:33:00,37.5,22.8,30.20,NNW,333,8.0,15.0,55,0.00,,,0.00,Wunderground v.1.15,2013-01-10 12:33:00,
2013-01-10 07:34:00,37.5,22.8,30.20,North,355,7.0,15.0,55,0.00,,,0.00,Wunderground v.1.15,2013-01-10 12:34:00,
2013-01-10 07:35:00,37.4,22.7,30.20,NNW,344,7.0,15.0,55,0.00,,,0.00,Wunderground v.1.15,2013-01-10 12:35:00,
2013-01-10 07:37:00,37.4,24.4,30.20,NW,323,6.0,15.0,59,0.00,,,0.00,Wunderground v.1.15,2013-01-10 12:37:00,
2013-01-10 07:41:00,37.3,22.6,30.21,NNW,347,6.0,15.0,55,0.00,,,0.00,Wunderground v.1.15,2013-01-10 12:41:00,
2013-01-10 07:43:00,37.4,22.7,30.21,North,360,5.0,15.0,55,0.00,,,0.00,Wunderground v.1.15,2013-01-10 12:43:00,
2013-01-10 07:44:00,37.5,22.8,30.21,NNW,346,5.0,15.0,55,0.00,,,0.00,Wunderground v.1.15,2013-01-10 12:44:00,
2013-01-10 07:49:00,37.5,22.8,30.22,North,360,3.0,15.0,55,0.00,,,0.00,Wunderground v.1.15,2013-01-10 12:49:00,
2013-01-10 07:50:00,37.3,22.6,30.22,North,360,2.0,2.0,55,0.00,,,0.00,Wunderground v.1.15,2013-01-10 12:50:00,
2013-01-10 07:51:00,37.1,22.8,30.22,WNW,302,1.0,15.0,56,0.00,,,0.00,Wunderground v.1.15,2013-01-10 12:51:00,
2013-01-10 07:52:00,37.1,22.8,30.22,NW,304,1.0,15.0,56,0.00,,,0.00,Wunderground v.1.15,2013-01-10 12:52:00,
2013-01-10 07:55:00,37.4,22.7,30.22,WNW,303,0.0,15.0,55,0.00,,,0.00,Wunderground v.1.15,2013-01-10 12:55:00,
2013-01-10 07:56:00,37.4,22.7,30.22,North,5,0.0,15.0,55,0.00,,,0.00,Wunderground v.1.15,2013-01-10 12:56:00,
2013-01-10 08:00:00,37.6,22.9,30.23,NNW,334,1.0,12.0,55,0.00,,,0.00,Wunderground v.1.15,2013-01-10 13:00:00,
2013-01-10 08:03:00,37.7,23.0,30.23,NNW,334,1.0,12.0,55,0.00,,,0.00,Wunderground v.1.15,2013-01-10 13:03:00,
2013-01-10 08:04:00,37.7,23.0,30.23,NNW,334,1.0,12.0,55,0.00,,,0.00,Wunderground v.1.15,2013-01-10 13:04:00,
2013-01-10 08:06:00,37.7,23.0,30.23,NW,321,1.0,12.0,55,0.00,,,0.00,Wunderground v.1.15,2013-01-10 13:06:00,
2013-01-10 08:08:00,37.8,22.6,30.23,NW,321,1.0,12.0,54,0.00,,,0.00,Wunderground v.1.15,2013-01-10 13:08:00,
2013-01-10 08:11:00,37.8,22.6,30.22,NNE,22,0.0,12.0,54,0.00,,,0.00,Wunderground v.1.15,2013-01-10 13:11:00,
2013-01-10 08:13:00,38.0,22.8,30.23,NNW,342,1.0,12.0,54,0.00,,,0.00,Wunderground v.1.15,2013-01-10 13:13:00,
2013-01-10 08:14:00,37.9,22.7,30.23,NNW,329,1.0,12.0,54,0.00,,,0.00,Wunderground v.1.15,2013-01-10 13:14:00,
2013-01-10 08:15:00,37.9,22.7,30.23,NW,315,1.0,12.0,54,0.00,,,0.00,Wunderground v.1.15,2013-01-10 13:15:00,
2013-01-10 08:17:00,37.9,22.7,30.23,NNW,329,2.0,12.0,54,0.00,,,0.00,Wunderground v.1.15,2013-01-10 13:17:00,
2013-01-10 08:19:00,37.9,23.2,30.23,NNW,342,2.0,12.0,55,0.00,,,0.00,Wunderground v.1.15,2013-01-10 13:19:00,
2013-01-10 08:20:00,38.1,23.3,30.23,NNW,338,2.0,12.0,55,0.00,,,0.00,Wunderground v.1.15,2013-01-10 13:20:00,
2013-01-10 08:21:00,38.2,23.0,30.23,NNW,335,2.0,12.0,54,0.00,,,0.00,Wunderground v.1.15,2013-01-10 13:21:00,
2013-01-10 08:24:00,37.9,23.2,30.23,NNW,339,2.0,12.0,55,0.00,,,0.00,Wunderground v.1.15,2013-01-10 13:24:00,
2013-01-10 08:25:00,37.9,23.2,30.23,North,355,2.0,12.0,55,0.00,,,0.00,Wunderground v.1.15,2013-01-10 13:25:00,
2013-01-10 08:26:00,38.0,23.3,30.23,North,351,2.0,12.0,55,0.00,,,0.00,Wunderground v.1.15,2013-01-10 13:26:00,
2013-01-10 08:29:00,37.8,23.1,30.23,North,351,1.0,12.0,55,0.00,,,0.00,Wunderground v.1.15,2013-01-10 13:29:00,
2013-01-10 08:33:00,37.9,23.2,30.23,North,355,2.0,12.0,55,0.00,,,0.00,Wunderground v.1.15,2013-01-10 13:33:00,
2013-01-10 08:34:00,38.1,23.3,30.23,NNW,331,2.0,12.0,55,0.00,,,0.00,Wunderground v.1.15,2013-01-10 13:34:00,
2013-01-10 08:36:00,38.1,23.3,30.23,NNW,333,3.0,12.0,55,0.00,,,0.00,Wunderground v.1.15,2013-01-10 13:36:00,
2013-01-10 08:38:00,38.2,23.4,30.23,NNW,344,3.0,12.0,55,0.00,,,0.00,Wunderground v.1.15,2013-01-10 13:38:00,
2013-01-10 08:39:00,38.2,23.4,30.23,NNW,346,3.0,12.0,55,0.00,,,0.00,Wunderground v.1.15,2013-01-10 13:39:00,
2013-01-10 08:42:00,38.2,23.0,30.24,NNW,344,3.0,12.0,54,0.00,,,0.00,Wunderground v.1.15,2013-01-10 13:42:00,
2013-01-10 08:45:00,38.9,24.1,30.24,North,5,3.0,12.0,55,0.00,,,0.00,Wunderground v.1.15,2013-01-10 13:45:00,
2013-01-10 08:47:00,39.0,23.7,30.24,North,11,3.0,12.0,54,0.00,,,0.00,Wunderground v.1.15,2013-01-10 13:47:00,
2013-01-10 08:48:00,38.9,23.7,30.24,NW,321,3.0,12.0,54,0.00,,,0.00,Wunderground v.1.15,2013-01-10 13:48:00,
2013-01-10 08:50:00,38.6,23.4,30.24,NNW,337,4.0,12.0,54,0.00,,,0.00,Wunderground v.1.15,2013-01-10 13:50:00,
2013-01-10 08:52:00,38.4,23.6,30.24,North,355,4.0,12.0,55,0.00,,,0.00,Wunderground v.1.15,2013-01-10 13:52:00,
2013-01-10 08:55:00,38.8,23.6,30.24,NW,325,4.0,12.0,54,0.00,,,0.00,Wunderground v.1.15,2013-01-10 13:55:00,
2013-01-10 08:56:00,38.7,23.9,30.24,NNW,348,4.0,12.0,55,0.00,,,0.00,Wunderground v.1.15,2013-01-10 13:56:00,
2013-01-10 08:57:00,38.6,23.4,30.24,NNW,333,5.0,12.0,54,0.00,,,0.00,Wunderground v.1.15,2013-01-10 13:57:00,
2013-01-10 08:58:00,38.9,24.1,30.24,NW,320,5.0,12.0,55,0.00,,,0.00,Wunderground v.1.15,2013-01-10 13:58:00,
2013-01-10 09:02:00,38.8,23.6,30.25,NW,323,6.0,11.0,54,0.00,,,0.00,Wunderground v.1.15,2013-01-10 14:02:00,
2013-01-10 09:03:00,38.8,23.6,30.24,NW,314,6.0,11.0,54,0.00,,,0.00,Wunderground v.1.15,2013-01-10 14:03:00,
2013-01-10 09:04:00,38.7,23.5,30.24,NW,317,6.0,11.0,54,0.00,,,0.00,Wunderground v.1.15,2013-01-10 14:04:00,
2013-01-10 09:06:00,38.7,23.9,30.24,NW,325,6.0,11.0,55,0.00,,,0.00,Wunderground v.1.15,2013-01-10 14:06:00,
2013-01-10 09:07:00,38.7,23.5,30.24,NW,319,7.0,11.0,54,0.00,,,0.00,Wunderground v.1.15,2013-01-10 14:07:00,
2013-01-10 09:08:00,38.7,23.9,30.24,NNW,333,7.0,11.0,55,0.00,,,0.00,Wunderground v.1.15,2013-01-10 14:08:00,
2013-01-10 09:09:00,38.7,23.9,30.24,NNW,334,7.0,11.0,55,0.00,,,0.00,Wunderground v.1.15,2013-01-10 14:09:00,
2013-01-10 09:13:00,38.9,23.7,30.24,NW,318,9.0,13.0,54,0.00,,,0.00,Wunderground v.1.15,2013-01-10 14:13:00,
2013-01-10 09:14:00,38.9,24.1,30.25,NW,314,9.0,13.0,55,0.00,,,0.00,Wunderground v.1.15,2013-01-10 14:14:00,
2013-01-10 09:15:00,38.9,23.7,30.24,NW,323,9.0,13.0,54,0.00,,,0.00,Wunderground v.1.15,2013-01-10 14:15:00,
2013-01-10 09:19:00,39.2,23.9,30.25,NNW,336,9.0,13.0,54,0.00,,,0.00,Wunderground v.1.15,2013-01-10 14:19:00,
2013-01-10 09:20:00,39.2,23.9,30.25,NNW,338,8.0,8.0,54,0.00,,,0.00,Wunderground v.1.15,2013-01-10 14:20:00,
2013-01-10 09:21:00,39.2,24.4,30.25,NNW,336,7.0,10.0,55,0.00,,,0.00,Wunderground v.1.15,2013-01-10 14:21:00,
2013-01-10 09:26:00,39.2,23.9,30.25,NNW,342,5.0,10.0,54,0.00,,,0.00,Wunderground v.1.15,2013-01-10 14:26:00,
2013-01-10 09:27:00,39.3,24.0,30.25,NNW,332,5.0,10.0,54,0.00,,,0.00,Wunderground v.1.15,2013-01-10 14:27:00,
2013-01-10 09:31:00,39.5,24.2,30.26,NE,36,4.0,10.0,54,0.00,,,0.00,Wunderground v.1.15,2013-01-10 14:31:00,
2013-01-10 09:32:00,39.6,24.3,30.26,NE,36,4.0,10.0,54,0.00,,,0.00,Wunderground v.1.15,2013-01-10 14:32:00,
2013-01-10 09:33:00,39.5,24.2,30.25,NE,44,4.0,10.0,54,0.00,,,0.00,Wunderground v.1.15,2013-01-10 14:33:00,
2013-01-10 09:36:00,39.9,24.6,30.26,NE,36,2.0,10.0,54,0.00,,,0.00,Wunderground v.1.15,2013-01-10 14:36:00,
2013-01-10 09:38:00,39.8,24.5,30.26,ENE,63,2.0,10.0,54,0.00,,,0.00,Wunderground v.1.15,2013-01-10 14:38:00,
2013-01-10 09:39:00,39.8,24.5,30.26,ENE,65,2.0,10.0,54,0.00,,,0.00,Wunderground v.1.15,2013-01-10 14:39:00,
2013-01-10 09:42:00,39.7,24.4,30.26,NNE,29,1.0,10.0,54,0.00,,,0.00,Wunderground v.1.15,2013-01-10 14:42:00,
2013-01-10 09:44:00,39.9,24.6,30.26,North,10,1.0,10.0,54,0.00,,,0.00,Wunderground v.1.15,2013-01-10 14:44:00,
2013-01-10 09:47:00,39.7,24.4,30.26,East,80,1.0,10.0,54,0.00,,,0.00,Wunderground v.1.15,2013-01-10 14:47:00,
2013-01-10 09:49:00,39.8,24.5,30.26,ENE,57,2.0,10.0,54,0.00,,,0.00,Wunderground v.1.15,2013-01-10 14:49:00,
2013-01-10 09:53:00,40.1,24.3,30.27,NE,53,2.0,10.0,53,0.00,,,0.00,Wunderground v.1.15,2013-01-10 14:53:00,
2013-01-10 09:54:00,40.1,24.3,30.27,NNE,32,2.0,10.0,53,0.00,,,0.00,Wunderground v.1.15,2013-01-10 14:54:00,
2013-01-10 09:55:00,40.0,24.2,30.27,North,5,2.0,10.0,53,0.00,,,0.00,Wunderground v.1.15,2013-01-10 14:55:00,
2013-01-10 09:58:00,40.1,24.3,30.27,NNE,28,2.0,10.0,53,0.00,,,0.00,Wunderground v.1.15,2013-01-10 14:58:00,
2013-01-10 09:59:00,40.1,24.3,30.27,NNE,16,3.0,10.0,53,0.00,,,0.00,Wunderground v.1.15,2013-01-10 14:59:00,
2013-01-10 10:01:00,40.1,24.3,30.27,NW,319,3.0,6.0,53,0.00,,,0.00,Wunderground v.1.15,2013-01-10 15:01:00,
2013-01-10 10:04:00,40.0,24.2,30.27,NNW,344,4.0,6.0,53,0.00,,,0.00,Wunderground v.1.15,2013-01-10 15:04:00,
2013-01-10 10:06:00,40.0,24.2,30.27,North,10,4.0,7.0,53,0.00,,,0.00,Wunderground v.1.15,2013-01-10 15:06:00,
2013-01-10 10:09:00,39.9,24.6,30.28,NNW,334,5.0,7.0,54,0.00,,,0.00,Wunderground v.1.15,2013-01-10 15:09:00,
2013-01-10 10:12:00,39.8,24.0,30.27,WNW,301,5.0,6.0,53,0.00,,,0.00,Wunderground v.1.15,2013-01-10 15:12:00,
2013-01-10 10:14:00,39.9,24.1,30.27,NW,313,5.0,6.0,53,0.00,,,0.00,Wunderground v.1.15,2013-01-10 15:14:00,
2013-01-10 10:15:00,40.0,24.2,30.27,NW,314,5.0,6.0,53,0.00,,,0.00,Wunderground v.1.15,2013-01-10 15:15:00,
2013-01-10 10:18:00,40.3,24.1,30.27,WNW,297,4.0,6.0,52,0.00,,,0.00,Wunderground v.1.15,2013-01-10 15:18:00,
2013-01-10 10:19:00,40.4,24.1,30.27,NW,317,4.0,6.0,52,0.00,,,0.00,Wunderground v.1.15,2013-01-10 15:19:00,
2013-01-10 10:21:00,40.4,24.6,30.27,North,5,4.0,7.0,53,0.00,,,0.00,Wunderground v.1.15,2013-01-10 15:21:00,
2013-01-10 10:23:00,40.4,24.1,30.27,North,360,4.0,7.0,52,0.00,,,0.00,Wunderground v.1.15,2013-01-10 15:23:00,
2013-01-10 10:24:00,40.5,24.2,30.27,NNW,346,4.0,7.0,52,0.00,,,0.00,Wunderground v.1.15,2013-01-10 15:24:00,
2013-01-10 10:25:00,40.4,24.1,30.27,NW,313,4.0,7.0,52,0.00,,,0.00,Wunderground v.1.15,2013-01-10 15:25:00,
2013-01-10 10:28:00,40.6,24.3,30.27,NW,325,3.0,7.0,52,0.00,,,0.00,Wunderground v.1.15,2013-01-10 15:28:00,
2013-01-10 10:31:00,40.8,24.5,30.28,West,275,4.0,10.0,52,0.00,,,0.00,Wunderground v.1.15,2013-01-10 15:31:00,
2013-01-10 10:32:00,40.7,24.0,30.28,WNW,298,4.0,10.0,51,0.00,,,0.00,Wunderground v.1.15,2013-01-10 15:32:00,
2013-01-10 10:33:00,40.7,24.4,30.28,NW,319,4.0,10.0,52,0.00,,,0.00,Wunderground v.1.15,2013-01-10 15:33:00,
2013-01-10 10:35:00,40.8,24.1,30.28,NNW,328,4.0,10.0,51,0.00,,,0.00,Wunderground v.1.15,2013-01-10 15:35:00,
2013-01-10 10:37:00,40.8,24.1,30.27,NW,326,5.0,10.0,51,0.00,,,0.00,Wunderground v.1.15,2013-01-10 15:37:00,
2013-01-10 10:38:00,40.8,24.5,30.27,NNW,327,6.0,10.0,52,0.00,,,0.00,Wunderground v.1.15,2013-01-10 15:38:00,
2013-01-10 10:40:00,40.8,24.5,30.27,NNW,348,6.0,6.0,52,0.00,,,0.00,Wunderground v.1.15,2013-01-10 15:40:00,
2013-01-10 10:43:00,40.9,24.1,30.27,North,5,7.0,10.0,51,0.00,,,0.00,Wunderground v.1.15,2013-01-10 15:43:00,
2013-01-10 10:45:00,40.9,24.1,30.27,NNW,348,7.0,10.0,51,0.00,,,0.00,Wunderground v.1.15,2013-01-10 15:45:00,
2013-01-10 10:46:00,40.8,24.1,30.27,NNW,335,7.0,10.0,51,0.00,,,0.00,Wunderground v.1.15,2013-01-10 15:46:00,
2013-01-10 10:50:00,40.8,24.5,30.27,NW,313,6.0,6.0,52,0.00,,,0.00,Wunderground v.1.15,2013-01-10 15:50:00,
2013-01-10 10:51:00,40.8,24.1,30.27,NNW,340,6.0,6.0,51,0.00,,,0.00,Wunderground v.1.15,2013-01-10 15:51:00,
2013-01-10 10:52:00,40.9,24.1,30.27,NNW,342,5.0,11.0,51,0.00,,,0.00,Wunderground v.1.15,2013-01-10 15:52:00,
2013-01-10 10:55:00,41.2,24.9,30.27,North,350,6.0,11.0,52,0.00,,,0.00,Wunderground v.1.15,2013-01-10 15:55:00,
2013-01-10 10:57:00,41.4,24.1,30.27,NW,324,5.0,11.0,50,0.00,,,0.00,Wunderground v.1.15,2013-01-10 15:57:00,
2013-01-10 10:58:00,41.4,24.6,30.27,NW,324,5.0,11.0,51,0.00,,,0.00,Wunderground v.1.15,2013-01-10 15:58:00,
2013-01-10 10:59:00,41.3,24.0,30.27,WNW,285,5.0,11.0,50,0.00,,,0.00,Wunderground v.1.15,2013-01-10 15:59:00,
2013-01-10 11:04:00,41.3,24.5,30.27,NW,319,5.0,16.0,51,0.00,,,0.00,Wunderground v.1.15,2013-01-10 16:04:00,
2013-01-10 11:06:00,41.3,24.5,30.27,NNW,334,6.0,16.0,51,0.00,,,0.00,Wunderground v.1.15,2013-01-10 16:06:00,
2013-01-10 11:07:00,41.2,24.4,30.27,NW,310,6.0,16.0,51,0.00,,,0.00,Wunderground v.1.15,2013-01-10 16:07:00,
2013-01-10 11:09:00,41.1,24.3,30.27,NW,315,7.0,16.0,51,0.00,,,0.00,Wunderground v.1.15,2013-01-10 16:09:00,
2013-01-10 11:13:00,41.3,24.5,30.27,NNW,343,9.0,16.0,51,0.00,,,0.00,Wunderground v.1.15,2013-01-10 16:13:00,
2013-01-10 11:15:00,41.3,24.5,30.26,WNW,289,9.0,16.0,51,0.00,,,0.00,Wunderground v.1.15,2013-01-10 16:15:00,
2013-01-10 11:16:00,41.4,24.1,30.26,NNW,340,8.0,16.0,50,0.00,,,0.00,Wunderground v.1.15,2013-01-10 16:16:00,
2013-01-10 11:19:00,41.5,24.7,30.26,NW,321,8.0,16.0,51,0.00,,,0.00,Wunderground v.1.15,2013-01-10 16:19:00,
2013-01-10 11:20:00,41.4,24.6,30.26,NNW,340,8.0,16.0,51,0.00,,,0.00,Wunderground v.1.15,2013-01-10 16:20:00,
2013-01-10 11:24:00,41.4,24.6,30.26,NNE,26,7.0,16.0,51,0.00,,,0.00,Wunderground v.1.15,2013-01-10 16:24:00,
2013-01-10 11:25:00,41.3,25.0,30.26,North,355,7.0,16.0,52,0.00,,,0.00,Wunderground v.1.15,2013-01-10 16:25:00,
2013-01-10 11:26:00,41.3,24.5,30.26,NNW,327,8.0,16.0,51,0.00,,,0.00,Wunderground v.1.15,2013-01-10 16:26:00,
2013-01-10 11:29:00,41.2,23.9,30.26,NNW,336,10.0,16.0,50,0.00,,,0.00,Wunderground v.1.15,2013-01-10 16:29:00,
2013-01-10 11:32:00,41.2,24.9,30.25,WNW,288,10.0,16.0,52,0.00,,,0.00,Wunderground v.1.15,2013-01-10 16:32:00,
2013-01-10 11:34:00,41.2,24.4,30.26,NW,315,11.0,17.0,51,0.00,,,0.00,Wunderground v.1.15,2013-01-10 16:34:00,
2013-01-10 11:37:00,41.3,24.0,30.25,NNW,336,11.0,17.0,50,0.00,,,0.00,Wunderground v.1.15,2013-01-10 16:37:00,
2013-01-10 11:40:00,41.3,24.0,30.25,North,349,11.0,16.0,50,0.00,,,0.00,Wunderground v.1.15,2013-01-10 16:40:00,
2013-01-10 11:42:00,41.3,24.0,30.25,WNW,303,12.0,16.0,50,0.00,,,0.00,Wunderground v.1.15,2013-01-10 16:42:00,
2013-01-10 11:43:00,41.4,24.1,30.24,NNW,333,12.0,16.0,50,0.00,,,0.00,Wunderground v.1.15,2013-01-10 16:43:00,
2013-01-10 11:47:00,41.5,24.2,30.24,NW,326,12.0,16.0,50,0.00,,,0.00,Wunderground v.1.15,2013-01-10 16:47:00,
2013-01-10 11:50:00,41.5,23.7,30.24,NW,313,12.0,12.0,49,0.00,,,0.00,Wunderground v.1.15,2013-01-10 16:50:00,
2013-01-10 11:52:00,41.4,24.1,30.24,NNW,348,11.0,16.0,50,0.00,,,0.00,Wunderground v.1.15,2013-01-10 16:52:00,
2013-01-10 11:53:00,41.5,24.2,30.24,North,350,10.0,16.0,50,0.00,,,0.00,Wunderground v.1.15,2013-01-10 16:53:00,
2013-01-10 11:55:00,41.7,24.4,30.24,NW,317,10.0,16.0,50,0.00,,,0.00,Wunderground v.1.15,2013-01-10 16:55:00,
2013-01-10 11:57:00,41.8,24.0,30.24,North,350,10.0,16.0,49,0.00,,,0.00,Wunderground v.1.15,2013-01-10 16:57:00,
2013-01-10 11:59:00,41.8,24.0,30.24,NNW,332,10.0,16.0,49,0.00,,,0.00,Wunderground v.1.15,2013-01-10 16:59:00,
2013-01-10 12:02:00,41.8,24.0,30.24,NW,319,9.0,29.0,49,0.00,,,0.00,Wunderground v.1.15,2013-01-10 17:02:00,
2013-01-10 12:03:00,41.7,23.9,30.25,North,355,10.0,29.0,49,0.00,,,0.00,Wunderground v.1.15,2013-01-10 17:03:00,
2013-01-10 12:07:00,41.6,23.8,30.25,NNW,339,10.0,29.0,49,0.00,,,0.00,Wunderground v.1.15,2013-01-10 17:07:00,
2013-01-10 12:08:00,41.5,23.7,30.25,NNW,345,10.0,29.0,49,0.00,,,0.00,Wunderground v.1.15,2013-01-10 17:08:00,
2013-01-10 12:09:00,41.5,24.2,30.25,North,349,10.0,29.0,50,0.00,,,0.00,Wunderground v.1.15,2013-01-10 17:09:00,
2013-01-10 12:10:00,41.5,23.7,30.25,North,355,10.0,10.0,49,0.00,,,0.00,Wunderground v.1.15,2013-01-10 17:10:00,
2013-01-10 12:12:00,41.6,23.8,30.25,NNW,331,10.0,29.0,49,0.00,,,0.00,Wunderground v.1.15,2013-01-10 17:12:00,
2013-01-10 12:14:00,41.7,23.9,30.25,NNW,336,10.0,29.0,49,0.00,,,0.00,Wunderground v.1.15,2013-01-10 17:14:00,
2013-01-10 12:15:00,41.8,24.0,30.25,NW,320,10.0,29.0,49,0.00,,,0.00,Wunderground v.1.15,2013-01-10 17:15:00,
2013-01-10 12:18:00,41.9,23.6,30.25,NW,321,9.0,29.0,48,0.00,,,0.00,Wunderground v.1.15,2013-01-10 17:18:00,
2013-01-10 12:19:00,41.8,23.5,30.25,NNW,331,9.0,29.0,48,0.00,,,0.00,Wunderground v.1.15,2013-01-10 17:19:00,
2013-01-10 12:24:00,42.0,24.2,30.24,NNW,331,8.0,29.0,49,0.00,,,0.00,Wunderground v.1.15,2013-01-10 17:24:00,
2013-01-10 12:25:00,42.0,24.2,30.24,North,355,8.0,29.0,49,0.00,,,0.00,Wunderground v.1.15,2013-01-10 17:25:00,
2013-01-10 12:27:00,41.9,23.6,30.24,NNW,341,9.0,29.0,48,0.00,,,0.00,Wunderground v.1.15,2013-01-10 17:27:00,
2013-01-10 12:30:00,41.8,24.0,30.23,NNW,346,10.0,10.0,49,0.00,,,0.00,Wunderground v.1.15,2013-01-10 17:30:00,
2013-01-10 12:32:00,42.0,23.7,30.23,NNW,334,11.0,29.0,48,0.00,,,0.00,Wunderground v.1.15,2013-01-10 17:32:00,
2013-01-10 12:33:00,41.9,23.6,30.24,NW,325,12.0,29.0,48,0.00,,,0.00,Wunderground v.1.15,2013-01-10 17:33:00,
2013-01-10 12:37:00,42.2,23.9,30.24,NW,320,11.0,29.0,48,0.00,,,0.00,Wunderground v.1.15,2013-01-10 17:37:00,
2013-01-10 12:38:00,42.2,23.9,30.24,NNW,330,11.0,29.0,48,0.00,,,0.00,Wunderground v.1.15,2013-01-10 17:38:00,
2013-01-10 12:39:00,42.3,24.0,30.24,NNE,17,10.0,29.0,48,0.00,,,0.00,Wunderground v.1.15,2013-01-10 17:39:00,
2013-01-10 12:42:00,42.5,24.2,30.24,NNW,341,8.0,29.0,48,0.00,,,0.00,Wunderground v.1.15,2013-01-10 17:42:00,
2013-01-10 12:43:00,42.5,23.7,30.24,NNW,347,8.0,29.0,47,0.00,,,0.00,Wunderground v.1.15,2013-01-10 17:43:00,
2013-01-10 12:47:00,42.8,23.9,30.24,West,266,5.0,29.0,47,0.00,,,0.00,Wunderground v.1.15,2013-01-10 17:47:00,
2013-01-10 12:49:00,42.8,23.9,30.25,NW,324,5.0,29.0,47,0.00,,,0.00,Wunderground v.1.15,2013-01-10 17:49:00,
2013-01-10 12:51:00,42.8,23.9,30.25,NW,314,5.0,29.0,47,0.00,,,0.00,Wunderground v.1.15,2013-01-10 17:51:00,
2013-01-10 12:52:00,42.8,23.9,30.25,North,355,5.0,29.0,47,0.00,,,0.00,Wunderground v.1.15,2013-01-10 17:52:00,
2013-01-10 12:56:00,42.9,23.5,30.26,NNW,336,5.0,29.0,46,0.00,,,0.00,Wunderground v.1.15,2013-01-10 17:56:00,
2013-01-10 12:57:00,42.9,24.0,30.26,North,355,5.0,29.0,47,0.00,,,0.00,Wunderground v.1.15,2013-01-10 17:57:00,
2013-01-10 12:58:00,42.9,24.5,30.26,North,355,5.0,29.0,48,0.00,,,0.00,Wunderground v.1.15,2013-01-10 17:58:00,
2013-01-10 13:00:00,43.6,24.7,30.26,NE,46,4.0,18.0,47,0.00,,,0.00,Wunderground v.1.15,2013-01-10 18:00:00,
2013-01-10 13:02:00,43.4,24.5,30.26,North,9,4.0,18.0,47,0.00,,,0.00,Wunderground v.1.15,2013-01-10 18:02:00,
2013-01-10 13:04:00,43.3,23.9,30.26,WNW,303,3.0,18.0,46,0.00,,,0.00,Wunderground v.1.15,2013-01-10 18:04:00,
2013-01-10 13:07:00,43.3,24.4,30.26,WNW,291,3.0,18.0,47,0.00,,,0.00,Wunderground v.1.15,2013-01-10 18:07:00,
2013-01-10 13:09:00,43.6,24.2,30.26,WNW,291,3.0,18.0,46,0.00,,,0.00,Wunderground v.1.15,2013-01-10 18:09:00,
2013-01-10 13:10:00,43.7,24.2,30.26,North,5,3.0,3.0,46,0.00,,,0.00,Wunderground v.1.15,2013-01-10 18:10:00,
2013-01-10 13:13:00,43.3,24.4,30.26,NNW,336,3.0,18.0,47,0.00,,,0.00,Wunderground v.1.15,2013-01-10 18:13:00,
2013-01-10 13:16:00,43.2,24.3,30.26,NNW,328,3.0,18.0,47,0.00,,,0.00,Wunderground v.1.15,2013-01-10 18:16:00,
2013-01-10 13:19:00,43.2,24.3,30.26,NW,325,4.0,18.0,47,0.00,,,0.00,Wunderground v.1.15,2013-01-10 18:19:00,
2013-01-10 13:22:00,43.3,24.4,30.26,NNW,327,5.0,18.0,47,0.00,,,0.00,Wunderground v.1.15,2013-01-10 18:22:00,
2013-01-10 13:23:00,43.2,24.3,30.26,NNW,337,6.0,18.0,47,0.00,,,0.00,Wunderground v.1.15,2013-01-10 18:23:00,
2013-01-10 13:28:00,43.1,23.7,30.26,NW,323,8.0,18.0,46,0.00,,,0.00,Wunderground v.1.15,2013-01-10 18:28:00,
2013-01-10 13:29:00,43.2,24.3,30.26,NNE,17,8.0,18.0,47,0.00,,,0.00,Wunderground v.1.15,2013-01-10 18:29:00,
2013-01-10 13:30:00,43.3,24.4,30.26,NNW,338,8.0,18.0,47,0.00,,,0.00,Wunderground v.1.15,2013-01-10 18:30:00,
2013-01-10 13:31:00,43.4,24.0,30.26,NNW,338,8.0,18.0,46,0.00,,,0.00,Wunderground v.1.15,2013-01-10 18:31:00,
2013-01-10 13:35:00,43.6,24.2,30.26,NNW,334,7.0,18.0,46,0.00,,,0.00,Wunderground v.1.15,2013-01-10 18:35:00,
2013-01-10 13:36:00,43.5,23.5,30.26,NNW,338,7.0,18.0,45,0.00,,,0.00,Wunderground v.1.15,2013-01-10 18:36:00,
2013-01-10 13:37:00,43.4,24.0,30.26,North,349,7.0,18.0,46,0.00,,,0.00,Wunderground v.1.15,2013-01-10 18:37:00,
2013-01-10 13:39:00,43.3,23.9,30.26,NNE,22,7.0,18.0,46,0.00,,,0.00,Wunderground v.1.15,2013-01-10 18:39:00,
2013-01-10 13:40:00,43.3,23.4,30.26,North,351,7.0,18.0,45,0.00,,,0.00,Wunderground v.1.15,2013-01-10 18:40:00,
2013-01-10 13:43:00,43.4,24.0,30.27,North,360,7.0,18.0,46,0.00,,,0.00,Wunderground v.1.15,2013-01-10 18:43:00,
2013-01-10 13:46:00,43.7,24.2,30.27,NNE,15,6.0,18.0,46,0.00,,,0.00,Wunderground v.1.15,2013-01-10 18:46:00,
2013-01-10 13:49:00,43.7,23.7,30.27,NW,315,5.0,18.0,45,0.00,,,0.00,Wunderground v.1.15,2013-01-10 18:49:00,
2013-01-10 13:50:00,43.8,23.8,30.27,NNW,340,4.0,18.0,45,0.00,,,0.00,Wunderground v.1.15,2013-01-10 18:50:00,
2013-01-10 13:52:00,43.7,24.2,30.27,West,271,4.0,18.0,46,0.00,,,0.00,Wunderground v.1.15,2013-01-10 18:52:00,
2013-01-10 13:54:00,43.9,24.4,30.27,NW,321,4.0,18.0,46,0.00,,,0.00,Wunderground v.1.15,2013-01-10 18:54:00,
2013-01-10 13:56:00,44.0,24.0,30.26,North,5,4.0,18.0,45,0.00,,,0.00,Wunderground v.1.15,2013-01-10 18:56:00,
2013-01-10 13:57:00,43.8,24.3,30.26,North,355,5.0,18.0,46,0.00,,,0.00,Wunderground v.1.15,2013-01-10 18:57:00,
2013-01-10 14:00:00,43.7,23.7,30.26,NNW,327,5.0,17.0,45,0.00,,,0.00,Wunderground v.1.15,2013-01-10 19:00:00,
2013-01-10 14:03:00,43.6,23.6,30.26,NNW,346,6.0,17.0,45,0.00,,,0.00,Wunderground v.1.15,2013-01-10 19:03:00,
2013-01-10 14:05:00,43.6,24.2,30.26,NW,323,7.0,17.0,46,0.00,,,0.00,Wunderground v.1.15,2013-01-10 19:05:00,
2013-01-10 14:07:00,43.6,23.6,30.26,NNW,339,7.0,17.0,45,0.00,,,0.00,Wunderground v.1.15,2013-01-10 19:07:00,
2013-01-10 14:09:00,43.6,23.1,30.27,NNW,338,9.0,17.0,44,0.00,,,0.00,Wunderground v.1.15,2013-01-10 19:09:00,
2013-01-10 14:10:00,43.6,23.1,30.27,North,10,9.0,17.0,44,0.00,,,0.00,Wunderground v.1.15,2013-01-10 19:10:00,
2013-01-10 14:11:00,43.6,23.1,30.26,NNW,342,9.0,17.0,44,0.00,,,0.00,Wunderground v.1.15,2013-01-10 19:11:00,
2013-01-10 14:14:00,43.5,23.0,30.27,NW,315,10.0,17.0,44,0.00,,,0.00,Wunderground v.1.15,2013-01-10 19:14:00,
2013-01-10 14:15:00,43.5,23.0,30.27,NNW,335,11.0,17.0,44,0.00,,,0.00,Wunderground v.1.15,2013-01-10 19:15:00,
2013-01-10 14:18:00,43.6,23.6,30.27,NNW,347,9.0,17.0,45,0.00,,,0.00,Wunderground v.1.15,2013-01-10 19:18:00,
2013-01-10 14:21:00,43.5,23.0,30.27,NNW,328,9.0,17.0,44,0.00,,,0.00,Wunderground v.1.15,2013-01-10 19:21:00,
2013-01-10 14:26:00,43.7,23.2,30.28,NNW,336,9.0,17.0,44,0.00,,,0.00,Wunderground v.1.15,2013-01-10 19:26:00,
2013-01-10 14:27:00,43.8,23.3,30.28,NNW,335,9.0,17.0,44,0.00,,,0.00,Wunderground v.1.15,2013-01-10 19:27:00,
2013-01-10 14:29:00,43.8,23.8,30.28,NW,325,9.0,17.0,45,0.00,,,0.00,Wunderground v.1.15,2013-01-10 19:29:00,
2013-01-10 14:30:00,43.7,23.2,30.28,NW,314,9.0,9.0,44,0.00,,,0.00,Wunderground v.1.15,2013-01-10 19:30:00,
2013-01-10 14:32:00,43.7,23.2,30.28,NW,319,8.0,17.0,44,0.00,,,0.00,Wunderground v.1.15,2013-01-10 19:32:00,
2013-01-10 14:34:00,43.6,23.1,30.28,NW,317,8.0,17.0,44,0.00,,,0.00,Wunderground v.1.15,2013-01-10 19:34:00,
2013-01-10 14:35:00,43.5,23.0,30.29,NNW,342,8.0,17.0,44,0.00,,,0.00,Wunderground v.1.15,2013-01-10 19:35:00,
2013-01-10 14:37:00,43.5,23.0,30.29,NNW,327,9.0,17.0,44,0.00,,,0.00,Wunderground v.1.15,2013-01-10 19:37:00,
2013-01-10 14:42:00,43.4,23.4,30.28,NNW,327,9.0,17.0,45,0.00,,,0.00,Wunderground v.1.15,2013-01-10 19:42:00,
2013-01-10 14:43:00,43.5,23.0,30.28,NNW,336,9.0,17.0,44,0.00,,,0.00,Wunderground v.1.15,2013-01-10 19:43:00,
2013-01-10 14:44:00,43.5,23.5,30.28,NW,325,8.0,17.0,45,0.00,,,0.00,Wunderground v.1.15,2013-01-10 19:44:00,
2013-01-10 14:49:00,43.6,22.5,30.28,NNW,338,7.0,17.0,43,0.00,,,0.00,Wunderground v.1.15,2013-01-10 19:49:00,
2013-01-10 14:51:00,43.5,23.0,30.28,NW,318,7.0,17.0,44,0.00,,,0.00,Wunderground v.1.15,2013-01-10 19:51:00,
2013-01-10 14:53:00,43.6,23.1,30.28,NNW,331,8.0,17.0,44,0.00,,,0.00,Wunderground v.1.15,2013-01-10 19:53:00,
2013-01-10 14:55:00,43.6,23.1,30.29,NW,321,8.0,17.0,44,0.00,,,0.00,Wunderground v.1.15,2013-01-10 19:55:00,
2013-01-10 14:56:00,43.6,23.1,30.29,NNW,346,8.0,17.0,44,0.00,,,0.00,Wunderground v.1.15,2013-01-10 19:56:00,
2013-01-10 15:01:00,43.7,23.2,30.29,NW,321,8.0,16.0,44,0.00,,,0.00,Wunderground v.1.15,2013-01-10 20:01:00,
2013-01-10 15:06:00,43.3,23.4,30.29,NNW,347,9.0,16.0,45,0.00,,,0.00,Wunderground v.1.15,2013-01-10 20:06:00,
2013-01-10 15:07:00,43.4,22.9,30.29,North,349,9.0,16.0,44,0.00,,,0.00,Wunderground v.1.15,2013-01-10 20:07:00,
2013-01-10 15:08:00,43.4,22.9,30.29,NNW,347,9.0,16.0,44,0.00,,,0.00,Wunderground v.1.15,2013-01-10 20:08:00,
2013-01-10 15:12:00,43.3,23.4,30.29,NNW,333,10.0,13.0,45,0.00,,,0.00,Wunderground v.1.15,2013-01-10 20:12:00,
2013-01-10 15:14:00,43.3,22.8,30.29,NW,313,10.0,16.0,44,0.00,,,0.00,Wunderground v.1.15,2013-01-10 20:14:00,
2013-01-10 15:15:00,43.3,22.8,30.29,NW,325,10.0,16.0,44,0.00,,,0.00,Wunderground v.1.15,2013-01-10 20:15:00,
2013-01-10 15:19:00,43.2,23.3,30.29,North,5,10.0,16.0,45,0.00,,,0.00,Wunderground v.1.15,2013-01-10 20:19:00,
2013-01-10 15:20:00,43.2,23.3,30.29,NNW,343,9.0,16.0,45,0.00,,,0.00,Wunderground v.1.15,2013-01-10 20:20:00,
2013-01-10 15:22:00,43.3,23.4,30.29,NNW,335,10.0,16.0,45,0.00,,,0.00,Wunderground v.1.15,2013-01-10 20:22:00,
2013-01-10 15:25:00,43.3,23.4,30.29,NW,323,10.0,16.0,45,0.00,,,0.00,Wunderground v.1.15,2013-01-10 20:25:00,
2013-01-10 15:26:00,43.3,23.4,30.29,NW,323,9.0,16.0,45,0.00,,,0.00,Wunderground v.1.15,2013-01-10 20:26:00,
2013-01-10 15:32:00,43.0,23.1,30.29,NNW,337,8.0,16.0,45,0.00,,,0.00,Wunderground v.1.15,2013-01-10 20:32:00,
2013-01-10 15:33:00,43.1,22.6,30.29,NNW,333,8.0,16.0,44,0.00,,,0.00,Wunderground v.1.15,2013-01-10 20:33:00,
2013-01-10 15:38:00,43.1,22.6,30.30,NW,313,6.0,16.0,44,0.00,,,0.00,Wunderground v.1.15,2013-01-10 20:38:00,
2013-01-10 15:39:00,43.1,22.6,30.30,North,360,6.0,16.0,44,0.00,,,0.00,Wunderground v.1.15,2013-01-10 20:39:00,
2013-01-10 15:43:00,42.9,23.0,30.30,WNW,300,3.0,16.0,45,0.00,,,0.00,Wunderground v.1.15,2013-01-10 20:43:00,
2013-01-10 15:44:00,42.9,23.0,30.30,NNW,343,3.0,16.0,45,0.00,,,0.00,Wunderground v.1.15,2013-01-10 20:44:00,
2013-01-10 15:46:00,42.9,23.5,30.30,NW,320,3.0,16.0,46,0.00,,,0.00,Wunderground v.1.15,2013-01-10 20:46:00,
2013-01-10 15:48:00,42.9,23.0,30.31,NNW,344,3.0,16.0,45,0.00,,,0.00,Wunderground v.1.15,2013-01-10 20:48:00,
2013-01-10 15:50:00,42.9,23.0,30.31,NW,309,3.0,16.0,45,0.00,,,0.00,Wunderground v.1.15,2013-01-10 20:50:00,
2013-01-10 15:51:00,42.9,23.0,30.31,North,355,3.0,3.0,45,0.00,,,0.00,Wunderground v.1.15,2013-01-10 20:51:00,
2013-01-10 15:55:00,42.3,23.5,30.31,NW,304,4.0,16.0,47,0.00,,,0.00,Wunderground v.1.15,2013-01-10 20:55:00,
2013-01-10 15:56:00,42.2,22.9,30.31,NW,325,4.0,16.0,46,0.00,,,0.00,Wunderground v.1.15,2013-01-10 20:56:00,
2013-01-10 15:57:00,42.2,22.9,30.31,NNW,333,5.0,16.0,46,0.00,,,0.00,Wunderground v.1.15,2013-01-10 20:57:00,
2013-01-10 16:00:00,42.2,22.9,30.31,NW,309,5.0,9.0,46,0.00,,,0.00,Wunderground v.1.15,2013-01-10 21:00:00,
2013-01-10 16:01:00,42.3,23.0,30.31,NW,319,5.0,9.0,46,0.00,,,0.00,Wunderground v.1.15,2013-01-10 21:01:00,
2013-01-10 16:03:00,42.2,23.4,30.31,North,360,5.0,9.0,47,0.00,,,0.00,Wunderground v.1.15,2013-01-10 21:03:00,
2013-01-10 16:07:00,42.0,23.2,30.31,NNW,346,5.0,9.0,47,0.00,,,0.00,Wunderground v.1.15,2013-01-10 21:07:00,
2013-01-10 16:09:00,42.0,23.2,30.31,NW,317,5.0,9.0,47,0.00,,,0.00,Wunderground v.1.15,2013-01-10 21:09:00,
2013-01-10 16:13:00,41.7,23.4,30.32,NNW,329,4.0,9.0,48,0.00,,,0.00,Wunderground v.1.15,2013-01-10 21:13:00,
2013-01-10 16:14:00,41.7,22.9,30.32,NW,313,4.0,9.0,47,0.00,,,0.00,Wunderground v.1.15,2013-01-10 21:14:00,
2013-01-10 16:17:00,41.7,23.4,30.32,NNW,340,4.0,9.0,48,0.00,,,0.00,Wunderground v.1.15,2013-01-10 21:17:00,
2013-01-10 16:19:00,41.7,22.9,30.32,WNW,298,3.0,9.0,47,0.00,,,0.00,Wunderground v.1.15,2013-01-10 21:19:00,
2013-01-10 16:20:00,41.6,22.8,30.32,NNW,327,3.0,3.0,47,0.00,,,0.00,Wunderground v.1.15,2013-01-10 21:20:00,
2013-01-10 16:24:00,41.5,23.2,30.32,NNW,333,3.0,9.0,48,0.00,,,0.00,Wunderground v.1.15,2013-01-10 21:24:00,
2013-01-10 16:25:00,41.4,23.2,30.32,NNW,333,3.0,9.0,48,0.00,,,0.00,Wunderground v.1.15,2013-01-10 21:25:00,
2013-01-10 16:30:00,41.2,23.0,30.32,North,350,2.0,2.0,48,0.00,,,0.00,Wunderground v.1.15,2013-01-10 21:30:00,
2013-01-10 16:31:00,41.3,23.1,30.33,North,350,1.0,9.0,48,0.00,,,0.00,Wunderground v.1.15,2013-01-10 21:31:00,
2013-01-10 16:34:00,41.3,23.1,30.33,North,350,0.0,9.0,48,0.00,,,0.00,Wunderground v.1.15,2013-01-10 21:34:00,
2013-01-10 16:38:00,41.1,23.4,30.33,NNW,348,0.0,9.0,49,0.00,,,0.00,Wunderground v.1.15,2013-01-10 21:38:00,
2013-01-10 16:39:00,41.1,23.4,30.33,NE,42,0.0,9.0,49,0.00,,,0.00,Wunderground v.1.15,2013-01-10 21:39:00,
2013-01-10 16:42:00,41.1,23.4,30.33,NNW,344,0.0,9.0,49,0.00,,,0.00,Wunderground v.1.15,2013-01-10 21:42:00,
2013-01-10 16:45:00,41.2,23.0,30.33,North,11,1.0,9.0,48,0.00,,,0.00,Wunderground v.1.15,2013-01-10 21:45:00,
2013-01-10 16:49:00,41.1,22.9,30.32,North,9,2.0,9.0,48,0.00,,,0.00,Wunderground v.1.15,2013-01-10 21:49:00,
2013-01-10 16:51:00,40.9,22.7,30.33,NNW,348,2.0,9.0,48,0.00,,,0.00,Wunderground v.1.15,2013-01-10 21:51:00,
2013-01-10 16:57:00,40.4,22.7,30.33,North,5,2.0,9.0,49,0.00,,,0.00,Wunderground v.1.15,2013-01-10 21:57:00,
2013-01-10 16:58:00,40.4,22.7,30.33,NNW,346,3.0,9.0,49,0.00,,,0.00,Wunderground v.1.15,2013-01-10 21:58:00,
2013-01-10 17:00:00,40.6,23.4,30.33,North,5,3.0,3.0,50,0.00,,,0.00,Wunderground v.1.15,2013-01-10 22:00:00,
2013-01-10 17:04:00,40.7,23.5,30.33,North,11,3.0,5.0,50,0.00,,,0.00,Wunderground v.1.15,2013-01-10 22:04:00,
2013-01-10 17:07:00,40.7,23.5,30.33,North,355,2.0,5.0,50,0.00,,,0.00,Wunderground v.1.15,2013-01-10 22:07:00,
2013-01-10 17:09:00,40.7,23.0,30.33,North,355,2.0,5.0,49,0.00,,,0.00,Wunderground v.1.15,2013-01-10 22:09:00,
2013-01-10 17:11:00,40.5,23.3,30.33,North,360,2.0,5.0,50,0.00,,,0.00,Wunderground v.1.15,2013-01-10 22:11:00,
2013-01-10 17:13:00,40.2,23.0,30.33,NNW,345,3.0,5.0,50,0.00,,,0.00,Wunderground v.1.15,2013-01-10 22:13:00,
2013-01-10 17:16:00,39.9,22.7,30.33,NNW,340,3.0,5.0,50,0.00,,,0.00,Wunderground v.1.15,2013-01-10 22:16:00,
2013-01-10 17:18:00,39.8,23.1,30.33,NNE,27,3.0,5.0,51,0.00,,,0.00,Wunderground v.1.15,2013-01-10 22:18:00,
2013-01-10 17:19:00,39.8,23.1,30.33,North,10,3.0,5.0,51,0.00,,,0.00,Wunderground v.1.15,2013-01-10 22:19:00,
2013-01-10 17:22:00,39.6,22.9,30.33,North,360,3.0,5.0,51,0.00,,,0.00,Wunderground v.1.15,2013-01-10 22:22:00,
2013-01-10 17:24:00,39.6,22.9,30.33,North,355,2.0,5.0,51,0.00,,,0.00,Wunderground v.1.15,2013-01-10 22:24:00,
2013-01-10 17:25:00,39.6,22.9,30.33,North,351,2.0,5.0,51,0.00,,,0.00,Wunderground v.1.15,2013-01-10 22:25:00,
2013-01-10 17:30:00,39.2,23.5,30.33,North,5,1.0,1.0,53,0.00,,,0.00,Wunderground v.1.15,2013-01-10 22:30:00,
2013-01-10 17:34:00,38.5,22.8,30.33,North,5,1.0,5.0,53,0.00,,,0.00,Wunderground v.1.15,2013-01-10 22:34:00,
2013-01-10 17:36:00,38.4,22.7,30.33,North,5,1.0,5.0,53,0.00,,,0.00,Wunderground v.1.15,2013-01-10 22:36:00,
2013-01-10 17:38:00,38.4,22.7,30.33,North,5,0.0,5.0,53,0.00,,,0.00,Wunderground v.1.15,2013-01-10 22:38:00,
2013-01-10 17:42:00,38.2,23.0,30.33,North,5,0.0,5.0,54,0.00,,,0.00,Wunderground v.1.15,2013-01-10 22:42:00,
2013-01-10 17:45:00,38.4,23.2,30.33,North,5,0.0,5.0,54,0.00,,,0.00,Wunderground v.1.15,2013-01-10 22:45:00,
2013-01-10 17:50:00,38.3,23.1,30.34,North,5,0.0,5.0,54,0.00,,,0.00,Wunderground v.1.15,2013-01-10 22:50:00,
2013-01-10 17:52:00,38.3,23.1,30.34,North,5,1.0,5.0,54,0.00,,,0.00,Wunderground v.1.15,2013-01-10 22:52:00,
2013-01-10 17:56:00,38.2,23.4,30.34,NNW,342,1.0,5.0,55,0.00,,,0.00,Wunderground v.1.15,2013-01-10 22:56:00,
2013-01-10 17:57:00,38.0,23.7,30.34,NNW,342,1.0,5.0,56,0.00,,,0.00,Wunderground v.1.15,2013-01-10 22:57:00,
2013-01-10 18:03:00,37.5,23.2,30.34,NNW,327,2.0,5.0,56,0.00,,,0.00,Wunderground v.1.15,2013-01-10 23:03:00,
2013-01-10 18:04:00,37.5,23.6,30.34,NNW,338,2.0,5.0,57,0.00,,,0.00,Wunderground v.1.15,2013-01-10 23:04:00,
2013-01-10 18:08:00,37.7,23.8,30.34,NNW,344,4.0,6.0,57,0.00,,,0.00,Wunderground v.1.15,2013-01-10 23:08:00,
2013-01-10 18:09:00,37.8,23.9,30.34,NNW,339,4.0,6.0,57,0.00,,,0.00,Wunderground v.1.15,2013-01-10 23:09:00,
2013-01-10 18:14:00,38.2,23.9,30.34,NNW,327,6.0,6.0,56,0.00,,,0.00,Wunderground v.1.15,2013-01-10 23:14:00,
2013-01-10 18:15:00,38.2,23.9,30.34,NNW,328,6.0,6.0,56,0.00,,,0.00,Wunderground v.1.15,2013-01-10 23:15:00,
2013-01-10 18:17:00,38.2,23.9,30.34,NNW,333,6.0,9.0,56,0.00,,,0.00,Wunderground v.1.15,2013-01-10 23:17:00,
2013-01-10 18:19:00,38.3,24.0,30.34,NNW,338,6.0,9.0,56,0.00,,,0.00,Wunderground v.1.15,2013-01-10 23:19:00,
2013-01-10 18:23:00,38.2,23.9,30.34,NNW,346,6.0,6.0,56,0.00,,,0.00,Wunderground v.1.15,2013-01-10 23:23:00,
2013-01-10 18:25:00,38.2,23.9,30.34,North,349,6.0,7.0,56,0.00,,,0.00,Wunderground v.1.15,2013-01-10 23:25:00,
2013-01-10 18:28:00,38.2,23.9,30.34,NNW,344,6.0,8.0,56,0.00,,,0.00,Wunderground v.1.15,2013-01-10 23:28:00,
2013-01-10 18:33:00,38.2,23.9,30.34,NNW,331,7.0,10.0,56,0.00,,,0.00,Wunderground v.1.15,2013-01-10 23:33:00,
2013-01-10 18:36:00,38.4,24.1,30.34,NW,324,7.0,10.0,56,0.00,,,0.00,Wunderground v.1.15,2013-01-10 23:36:00,
2013-01-10 18:38:00,38.4,24.1,30.34,NNW,334,7.0,10.0,56,0.00,,,0.00,Wunderground v.1.15,2013-01-10 23:38:00,
2013-01-10 18:40:00,38.4,24.1,30.35,NNW,330,7.0,7.0,56,0.00,,,0.00,Wunderground v.1.15,2013-01-10 23:40:00,
2013-01-10 18:42:00,38.5,24.1,30.35,NNW,344,7.0,8.0,56,0.00,,,0.00,Wunderground v.1.15,2013-01-10 23:42:00,
2013-01-10 18:43:00,38.5,24.1,30.35,NNW,344,7.0,8.0,56,0.00,,,0.00,Wunderground v.1.15,2013-01-10 23:43:00,
2013-01-10 18:45:00,38.6,24.2,30.35,NNE,13,7.0,8.0,56,0.00,,,0.00,Wunderground v.1.15,2013-01-10 23:45:00,
2013-01-10 18:47:00,38.6,24.2,30.35,NNW,338,7.0,8.0,56,0.00,,,0.00,Wunderground v.1.15,2013-01-10 23:47:00,
2013-01-10 18:49:00,38.6,24.2,30.35,North,355,6.0,8.0,56,0.00,,,0.00,Wunderground v.1.15,2013-01-10 23:49:00,
2013-01-10 18:51:00,38.6,24.2,30.35,NNW,340,5.0,6.0,56,0.00,,,0.00,Wunderground v.1.15,2013-01-10 23:51:00,
2013-01-10 18:56:00,38.1,24.2,30.35,North,350,3.0,6.0,57,0.00,,,0.00,Wunderground v.1.15,2013-01-10 23:56:00,
2013-01-10 19:00:00,37.7,23.8,30.35,North,9,2.0,2.0,57,0.00,,,0.00,Wunderground v.1.15,2013-01-11 00:00:00,
2013-01-10 19:03:00,37.7,23.8,30.35,NNE,15,2.0,14.0,57,0.00,,,0.00,Wunderground v.1.15,2013-01-11 00:03:00,
2013-01-10 19:07:00,37.0,24.0,30.36,NNE,32,1.0,14.0,59,0.00,,,0.00,Wunderground v.1.15,2013-01-11 00:07:00,
2013-01-10 19:08:00,36.8,23.8,30.36,NNE,32,1.0,14.0,59,0.00,,,0.00,Wunderground v.1.15,2013-01-11 00:08:00,
2013-01-10 19:13:00,36.8,24.2,30.36,North,5,0.0,14.0,60,0.00,,,0.00,Wunderground v.1.15,2013-01-11 00:13:00,
2013-01-10 19:14:00,36.7,24.1,30.36,North,5,0.0,14.0,60,0.00,,,0.00,Wunderground v.1.15,2013-01-11 00:14:00,
2013-01-10 19:15:00,36.8,24.2,30.36,North,360,0.0,14.0,60,0.00,,,0.00,Wunderground v.1.15,2013-01-11 00:15:00,
2013-01-10 19:18:00,36.7,23.7,30.36,North,9,0.0,14.0,59,0.00,,,0.00,Wunderground v.1.15,2013-01-11 00:18:00,
2013-01-10 19:19:00,36.7,23.7,30.36,North,9,1.0,14.0,59,0.00,,,0.00,Wunderground v.1.15,2013-01-11 00:19:00,
2013-01-10 19:21:00,36.8,24.2,30.36,NNE,22,1.0,14.0,60,0.00,,,0.00,Wunderground v.1.15,2013-01-11 00:21:00,
2013-01-10 19:25:00,37.2,24.6,30.36,NNE,16,2.0,14.0,60,0.00,,,0.00,Wunderground v.1.15,2013-01-11 00:25:00,
2013-01-10 19:26:00,37.3,24.7,30.36,NNE,31,2.0,14.0,60,0.00,,,0.00,Wunderground v.1.15,2013-01-11 00:26:00,
2013-01-10 19:31:00,37.3,24.3,30.36,NNE,21,1.0,14.0,59,0.00,,,0.00,Wunderground v.1.15,2013-01-11 00:31:00,
2013-01-10 19:32:00,37.1,24.1,30.36,NNE,21,1.0,14.0,59,0.00,,,0.00,Wunderground v.1.15,2013-01-11 00:32:00,
2013-01-10 19:35:00,36.9,24.3,30.37,NNE,21,1.0,14.0,60,0.00,,,0.00,Wunderground v.1.15,2013-01-11 00:35:00,
2013-01-10 19:37:00,36.7,24.1,30.36,NNE,21,1.0,14.0,60,0.00,,,0.00,Wunderground v.1.15,2013-01-11 00:37:00,
2013-01-10 19:39:00,36.3,23.7,30.37,NNE,21,0.0,14.0,60,0.00,,,0.00,Wunderground v.1.15,2013-01-11 00:39:00,
2013-01-10 19:41:00,36.0,23.8,30.37,NNE,21,0.0,14.0,61,0.00,,,0.00,Wunderground v.1.15,2013-01-11 00:41:00,
2013-01-10 19:45:00,35.7,23.6,30.37,NNE,21,0.0,14.0,61,0.00,,,0.00,Wunderground v.1.15,2013-01-11 00:45:00,
2013-01-10 19:48:00,35.4,24.0,30.37,NNE,21,0.0,14.0,63,0.00,,,0.00,Wunderground v.1.15,2013-01-11 00:48:00,
2013-01-10 19:49:00,35.5,24.1,30.37,East,84,0.0,14.0,63,0.00,,,0.00,Wunderground v.1.15,2013-01-11 00:49:00,
2013-01-10 19:51:00,35.3,24.0,30.37,East,84,0.0,14.0,63,0.00,,,0.00,Wunderground v.1.15,2013-01-11 00:51:00,
2013-01-10 19:57:00,34.7,23.8,30.38,East,84,0.0,14.0,64,0.00,,,0.00,Wunderground v.1.15,2013-01-11 00:57:00,
2013-01-10 19:58:00,34.8,23.9,30.38,East,84,0.0,14.0,64,0.00,,,0.00,Wunderground v.1.15,2013-01-11 00:58:00,
2013-01-10 20:00:00,34.8,23.9,30.38,East,84,0.0,3.0,64,0.00,,,0.00,Wunderground v.1.15,2013-01-11 01:00:00,
2013-01-10 20:05:00,34.1,23.6,30.38,East,84,0.0,3.0,65,0.00,,,0.00,Wunderground v.1.15,2013-01-11 01:05:00,
2013-01-10 20:07:00,33.8,23.6,30.38,East,84,0.0,3.0,66,0.00,,,0.00,Wunderground v.1.15,2013-01-11 01:07:00,
2013-01-10 20:08:00,33.7,23.5,30.38,East,84,0.0,3.0,66,0.00,,,0.00,Wunderground v.1.15,2013-01-11 01:08:00,
2013-01-10 20:12:00,33.5,23.7,30.39,East,84,0.0,3.0,67,0.00,,,0.00,Wunderground v.1.15,2013-01-11 01:12:00,
2013-01-10 20:13:00,33.4,24.0,30.39,East,84,0.0,3.0,68,0.00,,,0.00,Wunderground v.1.15,2013-01-11 01:13:00,
2013-01-10 20:14:00,33.4,24.0,30.39,East,84,0.0,3.0,68,0.00,,,0.00,Wunderground v.1.15,2013-01-11 01:14:00,
2013-01-10 20:17:00,33.2,23.8,30.39,ENE,73,0.0,3.0,68,0.00,,,0.00,Wunderground v.1.15,2013-01-11 01:17:00,
2013-01-10 20:19:00,33.0,23.6,30.39,NNW,329,1.0,3.0,68,0.00,,,0.00,Wunderground v.1.15,2013-01-11 01:19:00,
2013-01-10 20:24:00,33.4,24.0,30.40,NW,304,2.0,3.0,68,0.00,,,0.00,Wunderground v.1.15,2013-01-11 01:24:00,
2013-01-10 20:26:00,33.6,23.8,30.40,WNW,303,2.0,3.0,67,0.00,,,0.00,Wunderground v.1.15,2013-01-11 01:26:00,
2013-01-10 20:28:00,33.8,24.0,30.40,WNW,303,2.0,3.0,67,0.00,,,0.00,Wunderground v.1.15,2013-01-11 01:28:00,
2013-01-10 20:29:00,33.9,24.1,30.40,WNW,303,2.0,3.0,67,0.00,,,0.00,Wunderground v.1.15,2013-01-11 01:29:00,
2013-01-10 20:32:00,34.1,23.9,30.40,WNW,303,2.0,3.0,66,0.00,,,0.00,Wunderground v.1.15,2013-01-11 01:32:00,
2013-01-10 20:33:00,33.9,23.7,30.40,WNW,303,1.0,3.0,66,0.00,,,0.00,Wunderground v.1.15,2013-01-11 01:33:00,
2013-01-10 20:35:00,33.5,23.7,30.40,WNW,303,1.0,3.0,67,0.00,,,0.00,Wunderground v.1.15,2013-01-11 01:35:00,
2013-01-10 20:38:00,33.1,23.7,30.40,WNW,303,1.0,3.0,68,0.00,,,0.00,Wunderground v.1.15,2013-01-11 01:38:00,
2013-01-10 20:41:00,32.8,23.7,30.40,WNW,303,0.0,3.0,69,0.00,,,0.00,Wunderground v.1.15,2013-01-11 01:41:00,
2013-01-10 20:42:00,32.8,23.7,30.40,WNW,303,0.0,3.0,69,0.00,,,0.00,Wunderground v.1.15,2013-01-11 01:42:00,
2013-01-10 20:43:00,32.8,23.7,30.40,WNW,303,0.0,3.0,69,0.00,,,0.00,Wunderground v.1.15,2013-01-11 01:43:00,
2013-01-10 20:48:00,32.4,23.7,30.41,NW,306,0.0,3.0,70,0.00,,,0.00,Wunderground v.1.15,2013-01-11 01:48:00,
2013-01-10 20:49:00,32.4,23.7,30.41,NW,306,0.0,3.0,70,0.00,,,0.00,Wunderground v.1.15,2013-01-11 01:49:00,
2013-01-10 20:53:00,31.9,23.6,30.41,NW,306,0.0,3.0,71,0.00,,,0.00,Wunderground v.1.15,2013-01-11 01:53:00,
2013-01-10 20:54:00,31.8,23.5,30.41,NW,306,0.0,3.0,71,0.00,,,0.00,Wunderground v.1.15,2013-01-11 01:54:00,
2013-01-10 20:59:00,31.1,23.5,30.41,NW,305,0.0,3.0,73,0.00,,,0.00,Wunderground v.1.15,2013-01-11 01:59:00,
2013-01-10 21:01:00,31.4,23.7,30.41,NW,305,0.0,2.0,73,0.00,,,0.00,Wunderground v.1.15,2013-01-11 02:01:00,
2013-01-10 21:05:00,32.0,24.0,30.41,NW,305,0.0,2.0,72,0.00,,,0.00,Wunderground v.1.15,2013-01-11 02:05:00,
2013-01-10 21:07:00,32.2,23.8,30.41,NW,305,0.0,2.0,71,0.00,,,0.00,Wunderground v.1.15,2013-01-11 02:07:00,
2013-01-10 21:08:00,32.3,23.9,30.41,NW,305,0.0,2.0,71,0.00,,,0.00,Wunderground v.1.15,2013-01-11 02:08:00,
2013-01-10 21:11:00,32.2,23.8,30.41,NW,305,0.0,2.0,71,0.00,,,0.00,Wunderground v.1.15,2013-01-11 02:11:00,
2013-01-10 21:13:00,31.8,23.5,30.41,NW,305,0.0,2.0,71,0.00,,,0.00,Wunderground v.1.15,2013-01-11 02:13:00,
2013-01-10 21:16:00,31.5,23.5,30.41,NW,305,0.0,2.0,72,0.00,,,0.00,Wunderground v.1.15,2013-01-11 02:16:00,
2013-01-10 21:17:00,31.5,23.5,30.41,NW,305,0.0,2.0,72,0.00,,,0.00,Wunderground v.1.15,2013-01-11 02:17:00,
2013-01-10 21:18:00,31.4,23.4,30.41,NW,305,0.0,2.0,72,0.00,,,0.00,Wunderground v.1.15,2013-01-11 02:18:00,
2013-01-10 21:22:00,30.9,23.3,30.41,NNW,340,0.0,3.0,73,0.00,,,0.00,Wunderground v.1.15,2013-01-11 02:22:00,
2013-01-10 21:26:00,30.5,23.2,30.41,North,350,1.0,3.0,74,0.00,,,0.00,Wunderground v.1.15,2013-01-11 02:26:00,
2013-01-10 21:28:00,30.7,23.4,30.41,North,350,1.0,3.0,74,0.00,,,0.00,Wunderground v.1.15,2013-01-11 02:28:00,
2013-01-10 21:31:00,31.0,23.7,30.41,North,350,1.0,2.0,74,0.00,,,0.00,Wunderground v.1.15,2013-01-11 02:31:00,
2013-01-10 21:33:00,31.0,23.7,30.41,North,360,1.0,2.0,74,0.00,,,0.00,Wunderground v.1.15,2013-01-11 02:33:00,
2013-01-10 21:38:00,31.0,23.7,30.41,North,5,1.0,3.0,74,0.00,,,0.00,Wunderground v.1.15,2013-01-11 02:38:00,
2013-01-10 21:43:00,30.9,23.6,30.41,NNE,13,2.0,2.0,74,0.00,,,0.00,Wunderground v.1.15,2013-01-11 02:43:00,
2013-01-10 21:45:00,30.9,23.6,30.41,NNE,13,2.0,2.0,74,0.00,,,0.00,Wunderground v.1.15,2013-01-11 02:45:00,
2013-01-10 21:46:00,31.0,24.0,30.40,NNE,12,2.0,3.0,75,0.00,,,0.00,Wunderground v.1.15,2013-01-11 02:46:00,
2013-01-10 21:48:00,31.1,23.8,30.40,NNE,12,2.0,3.0,74,0.00,,,0.00,Wunderground v.1.15,2013-01-11 02:48:00,
2013-01-10 21:53:00,31.2,23.9,30.40,North,11,1.0,2.0,74,0.00,,,0.00,Wunderground v.1.15,2013-01-11 02:53:00,
2013-01-10 21:54:00,31.2,23.9,30.40,North,11,1.0,2.0,74,0.00,,,0.00,Wunderground v.1.15,2013-01-11 02:54:00,
2013-01-10 21:55:00,31.4,24.1,30.40,North,5,1.0,3.0,74,0.00,,,0.00,Wunderground v.1.15,2013-01-11 02:55:00,
2013-01-10 21:59:00,31.5,23.8,30.40,NNW,344,2.0,3.0,73,0.00,,,0.00,Wunderground v.1.15,2013-01-11 02:59:00,
2013-01-10 22:00:00,31.6,23.9,30.40,North,355,2.0,2.0,73,0.00,,,0.00,Wunderground v.1.15,2013-01-11 03:00:00,
2013-01-10 22:03:00,31.7,24.0,30.41,North,355,2.0,5.0,73,0.00,,,0.00,Wunderground v.1.15,2013-01-11 03:03:00,
2013-01-10 22:06:00,32.0,24.0,30.41,NNW,346,2.0,5.0,72,0.00,,,0.00,Wunderground v.1.15,2013-01-11 03:06:00,
2013-01-10 22:08:00,32.1,24.1,30.41,NNW,346,2.0,5.0,72,0.00,,,0.00,Wunderground v.1.15,2013-01-11 03:08:00,
2013-01-10 22:09:00,32.1,24.1,30.41,NNW,346,1.0,5.0,72,0.00,,,0.00,Wunderground v.1.15,2013-01-11 03:09:00,
2013-01-10 22:11:00,32.1,24.1,30.41,NNW,348,1.0,5.0,72,0.00,,,0.00,Wunderground v.1.15,2013-01-11 03:11:00,
2013-01-10 22:16:00,32.0,24.0,30.41,North,355,0.0,5.0,72,0.00,,,0.00,Wunderground v.1.15,2013-01-11 03:16:00,
2013-01-10 22:18:00,31.9,23.9,30.41,North,355,0.0,5.0,72,0.00,,,0.00,Wunderground v.1.15,2013-01-11 03:18:00,
2013-01-10 22:19:00,31.8,23.8,30.41,North,355,0.0,5.0,72,0.00,,,0.00,Wunderground v.1.15,2013-01-11 03:19:00,
2013-01-10 22:21:00,31.7,23.7,30.42,North,355,0.0,5.0,72,0.00,,,0.00,Wunderground v.1.15,2013-01-11 03:21:00,
2013-01-10 22:24:00,31.7,24.0,30.42,North,355,0.0,5.0,73,0.00,,,0.00,Wunderground v.1.15,2013-01-11 03:24:00,
2013-01-10 22:25:00,31.7,24.0,30.41,North,355,0.0,5.0,73,0.00,,,0.00,Wunderground v.1.15,2013-01-11 03:25:00,
2013-01-10 22:26:00,31.7,23.7,30.41,North,355,0.0,5.0,72,0.00,,,0.00,Wunderground v.1.15,2013-01-11 03:26:00,
2013-01-10 22:29:00,31.7,23.7,30.42,North,355,0.0,5.0,72,0.00,,,0.00,Wunderground v.1.15,2013-01-11 03:29:00,
2013-01-10 22:31:00,31.8,24.1,30.41,North,355,0.0,5.0,73,0.00,,,0.00,Wunderground v.1.15,2013-01-11 03:31:00,
2013-01-10 22:35:00,31.5,23.8,30.41,North,355,0.0,5.0,73,0.00,,,0.00,Wunderground v.1.15,2013-01-11 03:35:00,
2013-01-10 22:37:00,31.7,24.0,30.41,North,355,0.0,5.0,73,0.00,,,0.00,Wunderground v.1.15,2013-01-11 03:37:00,
2013-01-10 22:41:00,31.4,24.1,30.41,North,355,0.0,5.0,74,0.00,,,0.00,Wunderground v.1.15,2013-01-11 03:41:00,
2013-01-10 22:42:00,31.4,24.1,30.41,North,355,0.0,5.0,74,0.00,,,0.00,Wunderground v.1.15,2013-01-11 03:42:00,
2013-01-10 22:43:00,31.5,24.2,30.41,North,355,0.0,5.0,74,0.00,,,0.00,Wunderground v.1.15,2013-01-11 03:43:00,
2013-01-10 22:47:00,31.1,23.8,30.41,North,355,1.0,5.0,74,0.00,,,0.00,Wunderground v.1.15,2013-01-11 03:47:00,
2013-01-10 22:49:00,31.1,23.8,30.41,NNE,26,1.0,5.0,74,0.00,,,0.00,Wunderground v.1.15,2013-01-11 03:49:00,
2013-01-10 22:52:00,31.2,23.9,30.41,NNE,24,1.0,5.0,74,0.00,,,0.00,Wunderground v.1.15,2013-01-11 03:52:00,
2013-01-10 22:54:00,31.2,23.9,30.41,North,10,1.0,5.0,74,0.00,,,0.00,Wunderground v.1.15,2013-01-11 03:54:00,
2013-01-10 22:55:00,31.2,23.9,30.41,North,9,1.0,5.0,74,0.00,,,0.00,Wunderground v.1.15,2013-01-11 03:55:00,
2013-01-10 22:59:00,31.2,23.9,30.40,NW,323,2.0,7.0,74,0.00,,,0.00,Wunderground v.1.15,2013-01-11 03:59:00,
2013-01-10 23:00:00,31.2,23.9,30.40,NNW,327,2.0,4.0,74,0.00,,,0.00,Wunderground v.1.15,2013-01-11 04:00:00,
2013-01-10 23:01:00,31.2,23.9,30.40,NW,321,2.0,6.0,74,0.00,,,0.00,Wunderground v.1.15,2013-01-11 04:01:00,
2013-01-10 23:07:00,31.1,23.8,30.40,NW,324,2.0,6.0,74,0.00,,,0.00,Wunderground v.1.15,2013-01-11 04:07:00,
2013-01-10 23:09:00,31.1,24.1,30.40,NW,326,2.0,6.0,75,0.00,,,0.00,Wunderground v.1.15,2013-01-11 04:09:00,
2013-01-10 23:11:00,31.1,24.1,30.40,North,355,1.0,4.0,75,0.00,,,0.00,Wunderground v.1.15,2013-01-11 04:11:00,
2013-01-10 23:14:00,31.1,23.8,30.40,North,355,0.0,4.0,74,0.00,,,0.00,Wunderground v.1.15,2013-01-11 04:14:00,
2013-01-10 23:17:00,30.9,23.6,30.40,North,355,0.0,4.0,74,0.00,,,0.00,Wunderground v.1.15,2013-01-11 04:17:00,
2013-01-10 23:21:00,31.0,24.0,30.41,North,355,0.0,4.0,75,0.00,,,0.00,Wunderground v.1.15,2013-01-11 04:21:00,
2013-01-10 23:22:00,31.0,24.0,30.41,North,355,0.0,4.0,75,0.00,,,0.00,Wunderground v.1.15,2013-01-11 04:22:00,
2013-01-10 23:24:00,31.0,24.0,30.41,North,355,0.0,4.0,75,0.00,,,0.00,Wunderground v.1.15,2013-01-11 04:24:00,
2013-01-10 23:27:00,30.7,23.7,30.41,North,355,0.0,4.0,75,0.00,,,0.00,Wunderground v.1.15,2013-01-11 04:27:00,
2013-01-10 23:31:00,30.3,23.3,30.41,North,355,0.0,4.0,75,0.00,,,0.00,Wunderground v.1.15,2013-01-11 04:31:00,
2013-01-10 23:32:00,30.3,23.6,30.41,North,355,0.0,4.0,76,0.00,,,0.00,Wunderground v.1.15,2013-01-11 04:32:00,
2013-01-10 23:33:00,30.3,23.6,30.41,North,355,0.0,4.0,76,0.00,,,0.00,Wunderground v.1.15,2013-01-11 04:33:00,
2013-01-10 23:37:00,30.2,23.5,30.41,North,355,0.0,4.0,76,0.00,,,0.00,Wunderground v.1.15,2013-01-11 04:37:00,
2013-01-10 23:38:00,30.2,23.9,30.41,North,355,0.0,4.0,77,0.00,,,0.00,Wunderground v.1.15,2013-01-11 04:38:00,
2013-01-10 23:43:00,29.9,23.9,30.41,North,355,0.0,4.0,78,0.00,,,0.00,Wunderground v.1.15,2013-01-11 04:43:00,
2013-01-10 23:45:00,30.1,24.1,30.41,North,360,0.0,4.0,78,0.00,,,0.00,Wunderground v.1.15,2013-01-11 04:45:00,
2013-01-10 23:46:00,30.2,23.9,30.41,North,360,0.0,4.0,77,0.00,,,0.00,Wunderground v.1.15,2013-01-11 04:46:00,
2013-01-10 23:50:00,30.2,23.5,30.41,North,5,0.0,4.0,76,0.00,,,0.00,Wunderground v.1.15,2013-01-11 04:50:00,
2013-01-10 23:51:00,30.2,23.9,30.41,North,5,0.0,4.0,77,0.00,,,0.00,Wunderground v.1.15,2013-01-11 04:51:00,
2013-01-10 23:55:00,30.5,24.1,30.41,North,5,0.0,4.0,77,0.00,,,0.00,Wunderground v.1.15,2013-01-11 04:55:00,
2013-01-10 23:56:00,30.6,23.9,30.41,North,5,0.0,4.0,76,0.00,,,0.00,Wunderground v.1.15,2013-01-11 04:56:00,